CPA150 YBBN-VHHH

Flight info

Callsign CPA150
Flight time 8h 22m
Altitude 34000
Route BIXAD Q67 RUMKA/N0500F360 Q67 UPOLO DCT MEMOS B473 SAMGE/N0493F380 B473 LIGPA DCT MIA W16 AVMUP A461 NOMAN V533 BETTY
Aircraft A35K/H-SDE2E3GHIJ1J3J4J5LM1ORWXY/LB1D1

Departure

Time 2026-05-07 02:40
Airport Brisbane International Airport (YBBN)

Arrival

Time 2026-05-07 11:02
Airport Hong Kong International Airport (VHHH)
Time Latitude Longitude Altitude Speed Heading
2026-05-07 01:20 -27.40348 153.11130 27 ft 0 kts 297°
2026-05-07 01:22 -27.40349 153.11130 27 ft 0 kts 297°
2026-05-07 01:24 -27.40353 153.11140 27 ft 14 kts 297°
2026-05-07 01:24 -27.40348 153.11130 27 ft 0 kts 297°
2026-05-07 01:28 -27.40349 153.11130 27 ft 0 kts 297°
2026-05-07 01:34 -27.40349 153.11131 27 ft 0 kts 297°
2026-05-07 01:48 -27.40349 153.11132 27 ft 0 kts 297°
2026-05-07 01:58 -27.40350 153.11132 27 ft 0 kts 297°
2026-05-07 02:02 -27.40350 153.11133 27 ft 0 kts 297°
2026-05-07 02:15 -27.40350 153.11134 27 ft 0 kts 297°
2026-05-07 02:22 -27.40351 153.11135 27 ft 2 kts 297°
2026-05-07 02:22 -27.40362 153.11161 40 ft 4 kts 297°
2026-05-07 02:23 -27.40373 153.11182 40 ft 4 kts 309°
2026-05-07 02:23 -27.40392 153.11199 49 ft 4 kts 353°
2026-05-07 02:23 -27.40414 153.11194 26 ft 4 kts 27°
2026-05-07 02:23 -27.40439 153.11180 26 ft 4 kts 27°
2026-05-07 02:24 -27.40463 153.11166 26 ft 4 kts 27°
2026-05-07 02:24 -27.40481 153.11156 25 ft 0 kts 27°
2026-05-07 02:29 -27.40479 153.11157 26 ft 1 kts 27°
2026-05-07 02:29 -27.40452 153.11172 27 ft 9 kts 27°
2026-05-07 02:29 -27.40375 153.11216 27 ft 14 kts 27°
2026-05-07 02:29 -27.40284 153.11271 27 ft 14 kts 31°
2026-05-07 02:30 -27.40207 153.11325 27 ft 13 kts 41°
2026-05-07 02:30 -27.40205 153.11419 27 ft 13 kts 117°
2026-05-07 02:30 -27.40249 153.11516 27 ft 15 kts 117°
2026-05-07 02:30 -27.40258 153.11604 27 ft 8 kts 43°
2026-05-07 02:31 -27.40204 153.11639 27 ft 10 kts 27°
2026-05-07 02:31 -27.40137 153.11677 27 ft 12 kts 27°
2026-05-07 02:31 -27.40061 153.11721 27 ft 13 kts 27°
2026-05-07 02:31 -27.39975 153.11770 27 ft 14 kts 27°
2026-05-07 02:32 -27.39882 153.11823 27 ft 16 kts 27°
2026-05-07 02:32 -27.39781 153.11881 27 ft 17 kts 27°
2026-05-07 02:32 -27.39674 153.11942 27 ft 18 kts 27°
2026-05-07 02:32 -27.39560 153.12007 27 ft 19 kts 27°
2026-05-07 02:33 -27.39442 153.12074 27 ft 20 kts 27°
2026-05-07 02:33 -27.39318 153.12145 27 ft 20 kts 27°
2026-05-07 02:33 -27.39188 153.12219 27 ft 21 kts 27°
2026-05-07 02:33 -27.39052 153.12297 27 ft 22 kts 27°
2026-05-07 02:34 -27.38910 153.12378 27 ft 23 kts 27°
2026-05-07 02:34 -27.38765 153.12462 27 ft 24 kts 27°
2026-05-07 02:34 -27.38617 153.12546 27 ft 24 kts 27°
2026-05-07 02:34 -27.38465 153.12633 28 ft 25 kts 27°
2026-05-07 02:35 -27.38309 153.12722 27 ft 25 kts 27°
2026-05-07 02:35 -27.38149 153.12813 27 ft 26 kts 27°
2026-05-07 02:35 -27.37987 153.12906 27 ft 26 kts 27°
2026-05-07 02:35 -27.37823 153.13000 27 ft 27 kts 27°
2026-05-07 02:36 -27.37655 153.13097 27 ft 27 kts 27°
2026-05-07 02:36 -27.37495 153.13190 27 ft 22 kts 27°
2026-05-07 02:36 -27.37383 153.13252 27 ft 12 kts 26°
2026-05-07 02:36 -27.37332 153.13281 27 ft 5 kts 28°
2026-05-07 02:37 -27.37318 153.13314 27 ft 5 kts 88°
2026-05-07 02:37 -27.37329 153.13351 27 ft 5 kts 116°
2026-05-07 02:37 -27.37351 153.13391 28 ft 6 kts 128°
2026-05-07 02:37 -27.37391 153.13421 28 ft 8 kts 155°
2026-05-07 02:38 -27.37449 153.13430 28 ft 9 kts 182°
2026-05-07 02:38 -27.37503 153.13409 28 ft 0 kts 207°
2026-05-07 02:39 -27.37515 153.13402 28 ft 10 kts 207°
2026-05-07 02:39 -27.37798 153.13241 27 ft 81 kts 207°
2026-05-07 02:39 -27.38495 153.12844 29 ft 142 kts 207°
2026-05-07 02:39 -27.39152 153.12464 36 ft 177 kts 212°
2026-05-07 02:40 -27.40238 153.11841 790 ft 169 kts 209°
2026-05-07 02:40 -27.41670 153.11116 1702 ft 169 kts 208°
2026-05-07 02:40 -27.42405 153.10761 1980 ft 177 kts 207°
2026-05-07 02:40 -27.43951 153.09952 2436 ft 195 kts 213°
2026-05-07 02:41 -27.44770 153.09420 2615 ft 206 kts 214°
2026-05-07 02:41 -27.46019 153.08505 2900 ft 222 kts 223°
2026-05-07 02:41 -27.47107 153.06554 3540 ft 228 kts 258°
2026-05-07 02:41 -27.47265 153.05381 3939 ft 230 kts 264°
2026-05-07 02:42 -27.47387 153.03561 4503 ft 235 kts 266°
2026-05-07 02:42 -27.47499 153.01708 5134 ft 238 kts 265°
2026-05-07 02:42 -27.47622 152.99837 5780 ft 241 kts 265°
2026-05-07 02:42 -27.47753 152.97935 6430 ft 245 kts 266°
2026-05-07 02:43 -27.47736 152.96009 7124 ft 248 kts 279°
2026-05-07 02:43 -27.47124 152.94197 7894 ft 250 kts 302°
2026-05-07 02:43 -27.45881 152.92818 8633 ft 255 kts 324°
2026-05-07 02:43 -27.44301 152.91869 9341 ft 260 kts 337°
2026-05-07 02:44 -27.42499 152.91563 10038 ft 268 kts
2026-05-07 02:44 -27.40665 152.92141 10552 ft 286 kts 24°
2026-05-07 02:44 -27.39124 152.93649 10832 ft 312 kts 48°
2026-05-07 02:44 -27.37835 152.95695 11146 ft 330 kts 52°
2026-05-07 02:45 -27.36513 152.97899 11461 ft 347 kts 52°
2026-05-07 02:45 -27.35114 153.00192 11753 ft 363 kts 51°
2026-05-07 02:45 -27.33643 153.02571 12058 ft 377 kts 51°
2026-05-07 02:45 -27.32108 153.05037 12382 ft 391 kts 51°
2026-05-07 02:46 -27.30518 153.07580 12707 ft 403 kts 51°
2026-05-07 02:46 -27.28732 153.10025 13115 ft 407 kts 41°
2026-05-07 02:46 -27.26639 153.12173 13601 ft 409 kts 37°
2026-05-07 02:46 -27.24472 153.14278 14088 ft 413 kts 37°
2026-05-07 02:47 -27.22257 153.16337 14576 ft 413 kts 32°
2026-05-07 02:47 -27.19745 153.17863 15034 ft 408 kts 16°
2026-05-07 02:47 -27.17061 153.18875 15502 ft 409 kts 12°
2026-05-07 02:47 -27.14363 153.19807 15977 ft 411 kts 12°
2026-05-07 02:48 -27.11628 153.20755 16443 ft 414 kts 12°
2026-05-07 02:48 -27.08865 153.21719 16864 ft 417 kts 11°
2026-05-07 02:48 -27.06082 153.22694 17257 ft 421 kts 11°
2026-05-07 02:48 -27.03265 153.23594 17677 ft 420 kts
2026-05-07 02:49 -27.00386 153.23963 18130 ft 414 kts 356°
2026-05-07 02:49 -26.97512 153.24043 18552 ft 414 kts 354°
2026-05-07 02:49 -26.94618 153.24092 18917 ft 416 kts 354°
2026-05-07 02:49 -26.91714 153.24144 19288 ft 418 kts 354°
2026-05-07 02:50 -26.88790 153.24201 19679 ft 421 kts 354°
2026-05-07 02:50 -26.85859 153.24261 20069 ft 423 kts 354°
2026-05-07 02:50 -26.82910 153.24324 20445 ft 425 kts 354°
2026-05-07 02:50 -26.79943 153.24387 20844 ft 427 kts 354°
2026-05-07 02:51 -26.76966 153.24451 21269 ft 429 kts 354°
2026-05-07 02:51 -26.73980 153.24517 21690 ft 431 kts 354°
2026-05-07 02:51 -26.70968 153.24526 22099 ft 430 kts 351°
2026-05-07 02:51 -26.68061 153.24152 22506 ft 423 kts 342°
2026-05-07 02:52 -26.65204 153.23373 22925 ft 422 kts 338°
2026-05-07 02:52 -26.62386 153.22450 23344 ft 422 kts 336°
2026-05-07 02:52 -26.59579 153.21457 23738 ft 424 kts 336°
2026-05-07 02:52 -26.56768 153.20441 24096 ft 425 kts 335°
2026-05-07 02:53 -26.53952 153.19426 24496 ft 426 kts 335°
2026-05-07 02:53 -26.51119 153.18419 24937 ft 426 kts 335°
2026-05-07 02:53 -26.48285 153.17424 25349 ft 428 kts 336°
2026-05-07 02:53 -26.45432 153.16431 25755 ft 430 kts 336°
2026-05-07 02:54 -26.42567 153.15441 26172 ft 432 kts 336°
2026-05-07 02:54 -26.39700 153.14452 26588 ft 433 kts 336°
2026-05-07 02:54 -26.36817 153.13460 27010 ft 435 kts 335°
2026-05-07 02:54 -26.33913 153.12461 27424 ft 436 kts 335°
2026-05-07 02:55 -26.31021 153.11436 27807 ft 436 kts 333°
2026-05-07 02:55 -26.28240 153.10136 28203 ft 431 kts 327°
2026-05-07 02:55 -26.25659 153.08475 28547 ft 427 kts 321°
2026-05-07 02:55 -26.23184 153.06596 28623 ft 434 kts 320°
2026-05-07 02:56 -26.20719 153.04617 28823 ft 438 kts 319°
2026-05-07 02:56 -26.18269 153.02600 29170 ft 439 kts 319°
2026-05-07 02:56 -26.15823 153.00573 29684 ft 437 kts 319°
2026-05-07 02:56 -26.13390 152.98561 30200 ft 434 kts 319°
2026-05-07 02:57 -26.10970 152.96570 30636 ft 432 kts 319°
2026-05-07 02:57 -26.08586 152.94627 31117 ft 428 kts 319°
2026-05-07 02:57 -26.06186 152.92694 31603 ft 424 kts 319°
2026-05-07 02:57 -26.03804 152.90785 32066 ft 421 kts 318°
2026-05-07 02:58 -26.01437 152.88891 32541 ft 417 kts 318°
2026-05-07 02:58 -25.99090 152.87014 32982 ft 414 kts 317°
2026-05-07 02:58 -25.96760 152.85149 33410 ft 411 kts 317°
2026-05-07 02:58 -25.94451 152.83300 33803 ft 408 kts 317°
2026-05-07 02:59 -25.92149 152.81455 33996 ft 409 kts 316°
2026-05-07 02:59 -25.89830 152.79592 34034 ft 414 kts 316°
2026-05-07 02:59 -25.85133 152.75824 34039 ft 416 kts 317°
2026-05-07 03:00 -25.80431 152.72072 34044 ft 416 kts 317°
2026-05-07 03:00 -25.75735 152.68325 34038 ft 416 kts 317°
2026-05-07 03:01 -25.71040 152.64579 34041 ft 416 kts 317°
2026-05-07 03:01 -25.66370 152.60857 34036 ft 416 kts 317°
2026-05-07 03:02 -25.61676 152.57120 34036 ft 416 kts 317°
2026-05-07 03:02 -25.56974 152.53380 34040 ft 416 kts 317°
2026-05-07 03:03 -25.52271 152.49642 34039 ft 416 kts 317°
2026-05-07 03:03 -25.47567 152.45909 34037 ft 415 kts 317°
2026-05-07 03:04 -25.42873 152.42187 34037 ft 415 kts 317°
2026-05-07 03:04 -25.38176 152.38466 34035 ft 415 kts 317°
2026-05-07 03:05 -25.33511 152.34773 34039 ft 415 kts 317°
2026-05-07 03:05 -25.28805 152.31052 34039 ft 415 kts 317°
2026-05-07 03:06 -25.24098 152.27333 34032 ft 417 kts 317°
2026-05-07 03:06 -25.19378 152.23607 34037 ft 417 kts 317°
2026-05-07 03:07 -25.14655 152.19883 34036 ft 417 kts 317°
2026-05-07 03:07 -25.09922 152.16157 34040 ft 417 kts 317°
2026-05-07 03:08 -25.05194 152.12438 34036 ft 417 kts 317°
2026-05-07 03:08 -25.00495 152.08750 34038 ft 417 kts 317°
2026-05-07 03:09 -24.95761 152.05040 34033 ft 417 kts 317°
2026-05-07 03:09 -24.91023 152.01333 34034 ft 418 kts 317°
2026-05-07 03:10 -24.86283 151.97629 34030 ft 417 kts 317°
2026-05-07 03:10 -24.81548 151.93930 34030 ft 417 kts 317°
2026-05-07 03:11 -24.76804 151.90228 34031 ft 417 kts 317°
2026-05-07 03:11 -24.72066 151.86535 34027 ft 417 kts 317°
2026-05-07 03:12 -24.67346 151.82859 34025 ft 417 kts 317°
2026-05-07 03:12 -24.62606 151.79172 34031 ft 418 kts 317°
2026-05-07 03:13 -24.57855 151.75477 34020 ft 419 kts 317°
2026-05-07 03:13 -24.53080 151.71769 34029 ft 420 kts 317°
2026-05-07 03:14 -24.48307 151.68068 34024 ft 420 kts 317°
2026-05-07 03:15 -24.41157 151.62528 34027 ft 419 kts 317°
2026-05-07 03:15 -24.36419 151.58862 34025 ft 419 kts 317°
2026-05-07 03:16 -24.31651 151.55174 34022 ft 419 kts 317°
2026-05-07 03:16 -24.26895 151.51499 34018 ft 419 kts 317°
2026-05-07 03:17 -24.22117 151.47809 34021 ft 421 kts 317°
2026-05-07 03:17 -24.17327 151.44114 34009 ft 421 kts 317°
2026-05-07 03:18 -24.12513 151.40403 34031 ft 423 kts 317°
2026-05-07 03:18 -24.07708 151.36710 34029 ft 421 kts 317°
2026-05-07 03:19 -24.02949 151.33052 34014 ft 421 kts 317°
2026-05-07 03:19 -23.98166 151.29378 34032 ft 419 kts 317°
2026-05-07 03:20 -23.93388 151.25711 34019 ft 420 kts 318°
2026-05-07 03:20 -23.88586 151.22024 34022 ft 423 kts 317°
2026-05-07 03:21 -23.83715 151.18406 34021 ft 426 kts 321°
2026-05-07 03:21 -23.78556 151.15137 34020 ft 429 kts 322°
2026-05-07 03:22 -23.73354 151.11929 34022 ft 429 kts 322°
2026-05-07 03:22 -23.68197 151.08677 34024 ft 428 kts 322°
2026-05-07 03:23 -23.63057 151.05390 33986 ft 428 kts 321°
2026-05-07 03:23 -23.57952 151.02113 34024 ft 428 kts 322°
2026-05-07 03:24 -23.52781 150.98798 34025 ft 428 kts 322°
2026-05-07 03:24 -23.47673 150.95531 34024 ft 428 kts 322°
2026-05-07 03:25 -23.42531 150.92246 34023 ft 428 kts 322°
2026-05-07 03:25 -23.37392 150.88967 34023 ft 428 kts 322°
2026-05-07 03:26 -23.32245 150.85685 34023 ft 428 kts 322°
2026-05-07 03:26 -23.27101 150.82406 34023 ft 430 kts 322°
2026-05-07 03:27 -23.21928 150.79112 34022 ft 431 kts 322°
2026-05-07 03:27 -23.16749 150.75821 34026 ft 431 kts 322°
2026-05-07 03:28 -23.11571 150.72533 34022 ft 431 kts 322°
2026-05-07 03:28 -23.06401 150.69251 34024 ft 430 kts 322°
2026-05-07 03:29 -23.01266 150.65994 34023 ft 430 kts 322°
2026-05-07 03:29 -22.96097 150.62718 34019 ft 431 kts 322°
2026-05-07 03:30 -22.90908 150.59431 34029 ft 433 kts 323°
2026-05-07 03:30 -22.86535 150.56664 34023 ft 433 kts 322°
2026-05-07 03:31 -22.81364 150.53400 34022 ft 433 kts 322°
2026-05-07 03:31 -22.76151 150.50108 34018 ft 433 kts 322°
2026-05-07 03:32 -22.70949 150.46825 34017 ft 433 kts 322°
2026-05-07 03:32 -22.65745 150.43546 33993 ft 433 kts 323°
2026-05-07 03:33 -22.60531 150.40262 34011 ft 434 kts 323°
2026-05-07 03:33 -22.55302 150.36970 34012 ft 435 kts 323°
2026-05-07 03:34 -22.50072 150.33684 34013 ft 434 kts 323°
2026-05-07 03:34 -22.44842 150.30399 34012 ft 435 kts 323°
2026-05-07 03:35 -22.39611 150.27116 34013 ft 435 kts 323°
2026-05-07 03:35 -22.34409 150.23855 34012 ft 435 kts 323°
2026-05-07 03:36 -22.29172 150.20574 34011 ft 436 kts 323°
2026-05-07 03:36 -22.23924 150.17274 34008 ft 436 kts 322°
2026-05-07 03:37 -22.18738 150.13875 34003 ft 436 kts 322°
2026-05-07 03:37 -22.13570 150.10460 34019 ft 436 kts 322°
2026-05-07 03:38 -22.08391 150.07063 34005 ft 436 kts 322°
2026-05-07 03:38 -22.03197 150.03674 34002 ft 436 kts 322°
2026-05-07 03:39 -21.98007 150.00294 34008 ft 437 kts 322°
2026-05-07 03:39 -21.92832 149.96925 34007 ft 438 kts 322°
2026-05-07 03:40 -21.87614 149.93532 34014 ft 438 kts 322°
2026-05-07 03:40 -21.82399 149.90143 34009 ft 438 kts 322°
2026-05-07 03:41 -21.77180 149.86755 34009 ft 438 kts 323°
2026-05-07 03:41 -21.71961 149.83369 34010 ft 438 kts 323°
2026-05-07 03:42 -21.66741 149.79985 34016 ft 438 kts 323°
2026-05-07 03:42 -21.61518 149.76602 34007 ft 438 kts 323°
2026-05-07 03:43 -21.56293 149.73221 34008 ft 438 kts 323°
2026-05-07 03:43 -21.53678 149.71531 34115 ft 437 kts 323°
2026-05-07 03:43 -21.51081 149.69854 34485 ft 433 kts 323°
2026-05-07 03:43 -21.48510 149.68196 34832 ft 430 kts 322°
2026-05-07 03:44 -21.45954 149.66547 35112 ft 428 kts 322°
2026-05-07 03:44 -21.43403 149.64899 35360 ft 427 kts 322°
2026-05-07 03:44 -21.40866 149.63261 35591 ft 426 kts 322°
2026-05-07 03:44 -21.38358 149.61642 35808 ft 425 kts 322°
2026-05-07 03:45 -21.35829 149.60009 35982 ft 426 kts 322°
2026-05-07 03:45 -21.30703 149.56700 36012 ft 432 kts 323°
2026-05-07 03:46 -21.25550 149.53381 36015 ft 432 kts 323°
2026-05-07 03:46 -21.20400 149.50071 36013 ft 432 kts 323°
2026-05-07 03:47 -21.15242 149.46756 36000 ft 432 kts 323°
2026-05-07 03:47 -21.10084 149.43444 36012 ft 432 kts 323°
2026-05-07 03:48 -21.04932 149.40137 36015 ft 432 kts 323°
2026-05-07 03:48 -20.99797 149.36843 36004 ft 433 kts 323°
2026-05-07 03:49 -20.94616 149.33523 36004 ft 434 kts 323°
2026-05-07 03:49 -20.89430 149.30204 36004 ft 435 kts 323°
2026-05-07 03:50 -20.84242 149.26886 36005 ft 435 kts 323°
2026-05-07 03:50 -20.79047 149.23566 36001 ft 435 kts 323°
2026-05-07 03:51 -20.73853 149.20249 36002 ft 435 kts 323°
2026-05-07 03:51 -20.68658 149.16933 35990 ft 435 kts 323°
2026-05-07 03:52 -20.63453 149.13614 35997 ft 436 kts 323°
2026-05-07 03:52 -20.58237 149.10291 35998 ft 437 kts 323°
2026-05-07 03:53 -20.53052 149.06991 35999 ft 437 kts 323°
2026-05-07 03:53 -20.47839 149.03675 36000 ft 437 kts 323°
2026-05-07 03:54 -20.42616 149.00355 35996 ft 437 kts 323°
2026-05-07 03:54 -20.37389 148.97037 35992 ft 437 kts 323°
2026-05-07 03:55 -20.32452 148.93332 35994 ft 434 kts 317°
2026-05-07 03:55 -20.27704 148.89357 35993 ft 434 kts 317°
2026-05-07 03:56 -20.22983 148.85344 35992 ft 434 kts 317°
2026-05-07 03:56 -20.18257 148.81333 35993 ft 434 kts 317°
2026-05-07 03:57 -20.13519 148.77328 35991 ft 434 kts 317°
2026-05-07 03:57 -20.08814 148.73357 35990 ft 434 kts 317°
2026-05-07 03:58 -20.04079 148.69365 35988 ft 434 kts 317°
2026-05-07 03:58 -19.99333 148.65366 35984 ft 435 kts 317°
2026-05-07 03:59 -19.94579 148.61364 35985 ft 436 kts 317°
2026-05-07 03:59 -19.89815 148.57357 35985 ft 436 kts 317°
2026-05-07 04:00 -19.85057 148.53358 35986 ft 436 kts 317°
2026-05-07 04:00 -19.80327 148.49386 35988 ft 436 kts 317°
2026-05-07 04:01 -19.75568 148.45391 35987 ft 436 kts 317°
2026-05-07 04:01 -19.70810 148.41401 35985 ft 436 kts 317°
2026-05-07 04:02 -19.66046 148.37409 35978 ft 437 kts 317°
2026-05-07 04:02 -19.61267 148.33407 35986 ft 438 kts 317°
2026-05-07 04:03 -19.56478 148.29400 35986 ft 438 kts 317°
2026-05-07 04:03 -19.51723 148.25426 35981 ft 438 kts 317°
2026-05-07 04:04 -19.46931 148.21424 35979 ft 438 kts 317°
2026-05-07 04:04 -19.42114 148.17403 35981 ft 438 kts 317°
2026-05-07 04:05 -19.37364 148.13442 35982 ft 437 kts 317°
2026-05-07 04:05 -19.32574 148.09449 35965 ft 437 kts 317°
2026-05-07 04:06 -19.27775 148.05451 35980 ft 440 kts 317°
2026-05-07 04:06 -19.22965 148.01449 35979 ft 440 kts 317°
2026-05-07 04:07 -19.18147 147.97444 35980 ft 440 kts 317°
2026-05-07 04:07 -19.13335 147.93446 35979 ft 440 kts 317°
2026-05-07 04:08 -19.08515 147.89445 35977 ft 440 kts 317°
2026-05-07 04:08 -19.03733 147.85478 35977 ft 439 kts 317°
2026-05-07 04:09 -18.98916 147.81485 35967 ft 439 kts 317°
2026-05-07 04:09 -18.94103 147.77497 35980 ft 441 kts 317°
2026-05-07 04:10 -18.89265 147.73492 35977 ft 441 kts 317°
2026-05-07 04:10 -18.84436 147.69499 35977 ft 441 kts 317°
2026-05-07 04:11 -18.79597 147.65500 35977 ft 441 kts 317°
2026-05-07 04:11 -18.74761 147.61506 35974 ft 441 kts 317°
2026-05-07 04:12 -18.69929 147.57519 35974 ft 441 kts 317°
2026-05-07 04:12 -18.65120 147.53554 35974 ft 441 kts 317°
2026-05-07 04:13 -18.60282 147.49566 35974 ft 442 kts 318°
2026-05-07 04:13 -18.55423 147.45565 35974 ft 443 kts 318°
2026-05-07 04:14 -18.50566 147.41569 35974 ft 443 kts 318°
2026-05-07 04:14 -18.45701 147.37570 35973 ft 443 kts 318°
2026-05-07 04:15 -18.40840 147.33577 35974 ft 443 kts 318°
2026-05-07 04:15 -18.35971 147.29579 35971 ft 443 kts 318°
2026-05-07 04:16 -18.31111 147.25592 35971 ft 443 kts 318°
2026-05-07 04:16 -18.27059 147.22271 35972 ft 443 kts 318°
2026-05-07 04:17 -18.22196 147.18287 35968 ft 443 kts 318°
2026-05-07 04:17 -18.17330 147.14303 35968 ft 443 kts 318°
2026-05-07 04:18 -18.12460 147.10319 35970 ft 443 kts 318°
2026-05-07 04:18 -18.07590 147.06338 35971 ft 443 kts 318°
2026-05-07 04:19 -18.02712 147.02354 35967 ft 443 kts 318°
2026-05-07 04:19 -17.97865 146.98397 35968 ft 443 kts 318°
2026-05-07 04:20 -17.92991 146.94421 35967 ft 444 kts 318°
2026-05-07 04:20 -17.88097 146.90431 35974 ft 445 kts 318°
2026-05-07 04:21 -17.80745 146.84445 35976 ft 446 kts 318°
2026-05-07 04:21 -17.75841 146.80458 35972 ft 446 kts 318°
2026-05-07 04:22 -17.70937 146.76474 35963 ft 446 kts 318°
2026-05-07 04:22 -17.66035 146.72495 35959 ft 446 kts 318°
2026-05-07 04:23 -17.61125 146.68512 35958 ft 446 kts 318°
2026-05-07 04:23 -17.56212 146.64529 35967 ft 447 kts 318°
2026-05-07 04:24 -17.51318 146.60565 35960 ft 447 kts 318°
2026-05-07 04:24 -17.46387 146.56574 35962 ft 448 kts 318°
2026-05-07 04:25 -17.41460 146.52589 35970 ft 448 kts 319°
2026-05-07 04:25 -17.36530 146.48605 35969 ft 448 kts 319°
2026-05-07 04:26 -17.31598 146.44621 35966 ft 448 kts 319°
2026-05-07 04:26 -17.26666 146.40641 35941 ft 447 kts 319°
2026-05-07 04:27 -17.21724 146.36654 35955 ft 450 kts 319°
2026-05-07 04:27 -17.16760 146.32658 35961 ft 450 kts 319°
2026-05-07 04:28 -17.11796 146.28657 35953 ft 450 kts 319°
2026-05-07 04:28 -17.06837 146.24664 35958 ft 450 kts 319°
2026-05-07 04:29 -17.01904 146.20696 35960 ft 450 kts 319°
2026-05-07 04:29 -16.96938 146.16704 35955 ft 450 kts 319°
2026-05-07 04:30 -16.91975 146.12718 35949 ft 450 kts 319°
2026-05-07 04:30 -16.86991 146.08716 35956 ft 452 kts 319°
2026-05-07 04:31 -16.82004 146.04716 35952 ft 452 kts 319°
2026-05-07 04:31 -16.77009 146.00713 35952 ft 452 kts 319°
2026-05-07 04:32 -16.72015 145.96712 35950 ft 452 kts 319°
2026-05-07 04:32 -16.67484 145.92263 35949 ft 449 kts 310°
2026-05-07 04:33 -16.63252 145.87482 35952 ft 448 kts 310°
2026-05-07 04:33 -16.59064 145.82653 35952 ft 448 kts 309°
2026-05-07 04:34 -16.54869 145.77823 35951 ft 450 kts 310°
2026-05-07 04:34 -16.50684 145.73026 35949 ft 450 kts 310°
2026-05-07 04:35 -16.46467 145.68203 35949 ft 450 kts 310°
2026-05-07 04:35 -16.42250 145.63384 35951 ft 450 kts 310°
2026-05-07 04:36 -16.38032 145.58567 35953 ft 450 kts 310°
2026-05-07 04:36 -16.33813 145.53752 35957 ft 450 kts 310°
2026-05-07 04:37 -16.29590 145.48934 35955 ft 450 kts 310°
2026-05-07 04:37 -16.25366 145.44119 35955 ft 450 kts 310°
2026-05-07 04:38 -16.21167 145.39333 35943 ft 451 kts 310°
2026-05-07 04:38 -16.16927 145.34508 35962 ft 453 kts 310°
2026-05-07 04:39 -16.12678 145.29676 35951 ft 453 kts 310°
2026-05-07 04:39 -16.08425 145.24843 35953 ft 453 kts 310°
2026-05-07 04:40 -16.04176 145.20016 35953 ft 452 kts 310°
2026-05-07 04:40 -15.99927 145.15191 35953 ft 452 kts 310°
2026-05-07 04:41 -15.95677 145.10370 35945 ft 452 kts 310°
2026-05-07 04:41 -15.91427 145.05553 35940 ft 452 kts 310°
2026-05-07 04:42 -15.87173 145.00733 35940 ft 452 kts 310°
2026-05-07 04:42 -15.82923 144.95920 35935 ft 453 kts 310°
2026-05-07 04:43 -15.78661 144.91099 35935 ft 454 kts 310°
2026-05-07 04:43 -15.74415 144.86299 35935 ft 454 kts 310°
2026-05-07 04:44 -15.70142 144.81471 35925 ft 454 kts 310°
2026-05-07 04:44 -15.65871 144.76649 35926 ft 454 kts 310°
2026-05-07 04:45 -15.61599 144.71828 35921 ft 454 kts 310°
2026-05-07 04:45 -15.57316 144.66999 35921 ft 454 kts 310°
2026-05-07 04:46 -15.53037 144.62178 35910 ft 454 kts 310°
2026-05-07 04:46 -15.48786 144.57390 35910 ft 454 kts 310°
2026-05-07 04:47 -15.44506 144.52572 35915 ft 455 kts 310°
2026-05-07 04:47 -15.40212 144.47744 35894 ft 456 kts 310°
2026-05-07 04:48 -15.35911 144.42910 35888 ft 456 kts 310°
2026-05-07 04:48 -15.31606 144.38075 35904 ft 456 kts 310°
2026-05-07 04:49 -15.27304 144.33246 35907 ft 456 kts 310°
2026-05-07 04:49 -15.23005 144.28424 35904 ft 456 kts 310°
2026-05-07 04:50 -15.18700 144.23597 35883 ft 456 kts 311°
2026-05-07 04:50 -15.14424 144.18807 35898 ft 456 kts 311°
2026-05-07 04:51 -15.10120 144.13989 35886 ft 456 kts 311°
2026-05-07 04:51 -15.05806 144.09161 35884 ft 457 kts 311°
2026-05-07 04:52 -15.01488 144.04335 35888 ft 457 kts 311°
2026-05-07 04:52 -14.97008 143.99650 35884 ft 458 kts 315°
2026-05-07 04:53 -14.92266 143.95239 35897 ft 459 kts 316°
2026-05-07 04:53 -14.87479 143.90870 35903 ft 459 kts 316°
2026-05-07 04:54 -14.82693 143.86510 35883 ft 459 kts 316°
2026-05-07 04:54 -14.77909 143.82144 35998 ft 458 kts 316°
2026-05-07 04:55 -14.75533 143.79975 36329 ft 454 kts 316°
2026-05-07 04:55 -14.73177 143.77825 36637 ft 451 kts 316°
2026-05-07 04:55 -14.70830 143.75683 36904 ft 449 kts 316°
2026-05-07 04:55 -14.68490 143.73548 37128 ft 448 kts 316°
2026-05-07 04:56 -14.66189 143.71448 37325 ft 447 kts 316°
2026-05-07 04:56 -14.63856 143.69319 37531 ft 446 kts 316°
2026-05-07 04:56 -14.61533 143.67201 37711 ft 445 kts 316°
2026-05-07 04:56 -14.59205 143.65080 37874 ft 446 kts 316°
2026-05-07 04:57 -14.54524 143.60813 37896 ft 451 kts 316°
2026-05-07 04:57 -14.49812 143.56522 37895 ft 451 kts 316°
2026-05-07 04:58 -14.45107 143.52242 37898 ft 451 kts 316°
2026-05-07 04:58 -14.40408 143.47968 37900 ft 451 kts 317°
2026-05-07 04:59 -14.35720 143.43708 37908 ft 452 kts 317°
2026-05-07 04:59 -14.31006 143.39427 37905 ft 452 kts 317°
2026-05-07 05:00 -14.26285 143.35141 37907 ft 451 kts 317°
2026-05-07 05:00 -14.21569 143.30863 37911 ft 451 kts 317°
2026-05-07 05:01 -14.16854 143.26587 37894 ft 452 kts 317°
2026-05-07 05:01 -14.12135 143.22310 37912 ft 452 kts 317°
2026-05-07 05:02 -14.07420 143.18039 37898 ft 451 kts 317°
2026-05-07 05:02 -14.02692 143.13760 37903 ft 452 kts 317°
2026-05-07 05:03 -13.97966 143.09485 37904 ft 453 kts 317°
2026-05-07 05:03 -13.93236 143.05209 37885 ft 453 kts 317°
2026-05-07 05:04 -13.88534 143.00960 37894 ft 453 kts 317°
2026-05-07 05:04 -13.83793 142.96678 37897 ft 453 kts 317°
2026-05-07 05:05 -13.79061 142.92407 37887 ft 453 kts 317°
2026-05-07 05:05 -13.75122 142.88854 37893 ft 453 kts 317°
2026-05-07 05:06 -13.69584 142.83860 37887 ft 454 kts 317°
2026-05-07 05:06 -13.65637 142.80304 37881 ft 454 kts 317°
2026-05-07 05:07 -13.60883 142.76022 37880 ft 454 kts 317°
2026-05-07 05:07 -13.56131 142.71744 37876 ft 454 kts 317°
2026-05-07 05:08 -13.51373 142.67463 37881 ft 454 kts 317°
2026-05-07 05:08 -13.46619 142.63189 37875 ft 454 kts 317°
2026-05-07 05:09 -13.41889 142.58938 37871 ft 454 kts 317°
2026-05-07 05:09 -13.37126 142.54661 37867 ft 455 kts 317°
2026-05-07 05:10 -13.32347 142.50374 37872 ft 456 kts 317°
2026-05-07 05:10 -13.27570 142.46086 37868 ft 456 kts 317°
2026-05-07 05:11 -13.22819 142.41824 37870 ft 456 kts 317°
2026-05-07 05:11 -13.18042 142.37542 37864 ft 456 kts 317°
2026-05-07 05:12 -13.13266 142.33264 37858 ft 456 kts 317°
2026-05-07 05:12 -13.08484 142.28983 37862 ft 456 kts 317°
2026-05-07 05:13 -13.03700 142.24702 37858 ft 457 kts 317°
2026-05-07 05:13 -12.98899 142.20408 37862 ft 458 kts 317°
2026-05-07 05:14 -12.94098 142.16116 37855 ft 458 kts 317°
2026-05-07 05:14 -12.89296 142.11827 37857 ft 458 kts 317°
2026-05-07 05:15 -12.84492 142.07537 37851 ft 458 kts 317°
2026-05-07 05:15 -12.79717 142.03276 37852 ft 458 kts 317°
2026-05-07 05:16 -12.74914 141.98992 37850 ft 457 kts 317°
2026-05-07 05:16 -12.70113 141.94712 37852 ft 458 kts 317°
2026-05-07 05:17 -12.65325 141.90397 37852 ft 459 kts 315°
2026-05-07 05:17 -12.60819 141.85758 37852 ft 458 kts 313°
2026-05-07 05:18 -12.56407 141.81043 37852 ft 458 kts 313°
2026-05-07 05:18 -12.51951 141.76373 37855 ft 458 kts 314°
2026-05-07 05:19 -12.47489 141.71766 37849 ft 458 kts 314°
2026-05-07 05:19 -12.42989 141.67140 37856 ft 459 kts 314°
2026-05-07 05:20 -12.38486 141.62512 37855 ft 459 kts 314°
2026-05-07 05:20 -12.33978 141.57879 37856 ft 460 kts 314°
2026-05-07 05:21 -12.27210 141.50924 37859 ft 461 kts 314°
2026-05-07 05:22 -12.22686 141.46278 37859 ft 461 kts 314°
2026-05-07 05:22 -12.18160 141.41633 37859 ft 461 kts 314°
2026-05-07 05:23 -12.13635 141.36991 37859 ft 461 kts 314°
2026-05-07 05:23 -12.09110 141.32352 37862 ft 461 kts 314°
2026-05-07 05:24 -12.04582 141.27711 37859 ft 461 kts 314°
2026-05-07 05:24 -12.00051 141.23071 37863 ft 462 kts 314°
2026-05-07 05:25 -11.95505 141.18417 37866 ft 463 kts 314°
2026-05-07 05:25 -11.90995 141.13801 37864 ft 462 kts 314°
2026-05-07 05:26 -11.86449 141.09152 37867 ft 462 kts 314°
2026-05-07 05:26 -11.81905 141.04507 37865 ft 462 kts 314°
2026-05-07 05:27 -11.77359 140.99863 37864 ft 462 kts 314°
2026-05-07 05:27 -11.72810 140.95218 37865 ft 462 kts 314°
2026-05-07 05:28 -11.68262 140.90575 37860 ft 462 kts 314°
2026-05-07 05:28 -11.63705 140.85926 37864 ft 464 kts 314°
2026-05-07 05:29 -11.59133 140.81264 37868 ft 464 kts 314°
2026-05-07 05:29 -11.54563 140.76607 37867 ft 464 kts 314°
2026-05-07 05:30 -11.50016 140.71975 37867 ft 465 kts 314°
2026-05-07 05:30 -11.45446 140.67322 37867 ft 464 kts 314°
2026-05-07 05:31 -11.40869 140.62663 37865 ft 464 kts 314°
2026-05-07 05:31 -11.36295 140.58011 37865 ft 464 kts 314°
2026-05-07 05:32 -11.31723 140.53362 37865 ft 464 kts 314°
2026-05-07 05:32 -11.27149 140.48714 37865 ft 464 kts 314°
2026-05-07 05:33 -11.22574 140.44067 37864 ft 464 kts 314°
2026-05-07 05:33 -11.17995 140.39418 37865 ft 464 kts 314°
2026-05-07 05:34 -11.13444 140.34801 37864 ft 464 kts 314°
2026-05-07 05:34 -11.08866 140.30157 37864 ft 464 kts 314°
2026-05-07 05:35 -11.04285 140.25513 37864 ft 464 kts 314°
2026-05-07 05:35 -10.99710 140.20876 37861 ft 465 kts 314°
2026-05-07 05:36 -10.95116 140.16227 37861 ft 466 kts 315°
2026-05-07 05:36 -10.90504 140.11568 37861 ft 467 kts 314°
2026-05-07 05:37 -10.85900 140.06913 37863 ft 467 kts 314°
2026-05-07 05:37 -10.81296 140.02260 37862 ft 467 kts 314°
2026-05-07 05:38 -10.76688 139.97608 37861 ft 467 kts 315°
2026-05-07 05:38 -10.72076 139.92954 37862 ft 467 kts 315°
2026-05-07 05:39 -10.67463 139.88302 37855 ft 467 kts 315°
2026-05-07 05:39 -10.62840 139.83641 37861 ft 468 kts 315°
2026-05-07 05:40 -10.58214 139.78979 37859 ft 469 kts 315°
2026-05-07 05:40 -10.53580 139.74312 37858 ft 469 kts 315°
2026-05-07 05:41 -10.48978 139.69679 37860 ft 469 kts 315°
2026-05-07 05:41 -10.44329 139.65000 37857 ft 470 kts 315°
2026-05-07 05:42 -10.39682 139.60326 37855 ft 470 kts 315°
2026-05-07 05:42 -10.35034 139.55653 37854 ft 470 kts 315°
2026-05-07 05:43 -10.30383 139.50978 37855 ft 471 kts 315°
2026-05-07 05:43 -10.25720 139.46294 37853 ft 472 kts 315°
2026-05-07 05:44 -10.21048 139.41603 37870 ft 472 kts 315°
2026-05-07 05:44 -10.16379 139.36917 37852 ft 472 kts 315°
2026-05-07 05:45 -10.11739 139.32261 37850 ft 472 kts 315°
2026-05-07 05:45 -10.07058 139.27568 37850 ft 472 kts 315°
2026-05-07 05:46 -10.02389 139.22887 37849 ft 472 kts 315°
2026-05-07 05:46 -9.97714 139.18203 37846 ft 474 kts 315°
2026-05-07 05:47 -9.93019 139.13501 37858 ft 474 kts 315°
2026-05-07 05:47 -9.88323 139.08800 37838 ft 474 kts 315°
2026-05-07 05:48 -9.83629 139.04103 37857 ft 474 kts 315°
2026-05-07 05:48 -9.78954 138.99427 37837 ft 474 kts 315°
2026-05-07 05:49 -9.74256 138.94729 37837 ft 475 kts 315°
2026-05-07 05:49 -9.69556 138.90032 37857 ft 474 kts 315°
2026-05-07 05:50 -9.64853 138.85333 37835 ft 476 kts 315°
2026-05-07 05:50 -9.60134 138.80621 37852 ft 476 kts 315°
2026-05-07 05:51 -9.55421 138.75917 37852 ft 476 kts 315°
2026-05-07 05:51 -9.50700 138.71207 37830 ft 476 kts 315°
2026-05-07 05:52 -9.45980 138.66499 37848 ft 476 kts 315°
2026-05-07 05:52 -9.42059 138.62590 37847 ft 476 kts 315°
2026-05-07 05:53 -9.37331 138.57877 37843 ft 476 kts 315°
2026-05-07 05:53 -9.31838 138.52406 37846 ft 477 kts 315°
2026-05-07 05:54 -9.27103 138.47691 37842 ft 477 kts 315°
2026-05-07 05:54 -9.23139 138.43745 37840 ft 477 kts 315°
2026-05-07 05:55 -9.18438 138.39068 37846 ft 477 kts 315°
2026-05-07 05:55 -9.13705 138.34360 37842 ft 477 kts 315°
2026-05-07 05:56 -9.08975 138.29658 37839 ft 477 kts 315°
2026-05-07 05:56 -9.04241 138.24952 37841 ft 477 kts 315°
2026-05-07 05:57 -8.99510 138.20252 37841 ft 477 kts 315°
2026-05-07 05:57 -8.94782 138.15557 37839 ft 476 kts 315°
2026-05-07 05:58 -8.90053 138.10864 37840 ft 476 kts 315°
2026-05-07 05:58 -8.85221 138.06287 37841 ft 476 kts 321°
2026-05-07 05:59 -8.80020 138.02142 37837 ft 476 kts 322°
2026-05-07 05:59 -8.74754 137.98067 37835 ft 476 kts 322°
2026-05-07 06:00 -8.69482 137.94006 37834 ft 477 kts 322°
2026-05-07 06:00 -8.64237 137.89957 37833 ft 477 kts 322°
2026-05-07 06:01 -8.58963 137.85879 37832 ft 477 kts 322°
2026-05-07 06:01 -8.53679 137.81793 37830 ft 477 kts 322°
2026-05-07 06:02 -8.48405 137.77717 37830 ft 477 kts 322°
2026-05-07 06:02 -8.43126 137.73638 37830 ft 477 kts 322°
2026-05-07 06:03 -8.37849 137.69563 37825 ft 478 kts 323°
2026-05-07 06:03 -8.32558 137.65478 37823 ft 479 kts 323°
2026-05-07 06:04 -8.27305 137.61424 37827 ft 479 kts 323°
2026-05-07 06:04 -8.22008 137.57338 37827 ft 479 kts 323°
2026-05-07 06:05 -8.16710 137.53252 37822 ft 479 kts 323°
2026-05-07 06:05 -8.11407 137.49163 37822 ft 479 kts 323°
2026-05-07 06:06 -8.06108 137.45080 37821 ft 479 kts 323°
2026-05-07 06:06 -8.00813 137.41000 37823 ft 479 kts 323°
2026-05-07 06:07 -7.95503 137.36910 37823 ft 479 kts 323°
2026-05-07 06:07 -7.90202 137.32829 37821 ft 480 kts 323°
2026-05-07 06:08 -7.84930 137.28771 37824 ft 479 kts 323°
2026-05-07 06:08 -7.79628 137.24692 37821 ft 480 kts 323°
2026-05-07 06:09 -7.74307 137.20599 37824 ft 481 kts 323°
2026-05-07 06:09 -7.68980 137.16503 37824 ft 481 kts 323°
2026-05-07 06:10 -7.63649 137.12406 37825 ft 481 kts 323°
2026-05-07 06:10 -7.58329 137.08317 37822 ft 481 kts 323°
2026-05-07 06:11 -7.53007 137.04229 37821 ft 481 kts 323°
2026-05-07 06:11 -7.47677 137.00136 37820 ft 481 kts 323°
2026-05-07 06:12 -7.42371 136.96063 37820 ft 482 kts 323°
2026-05-07 06:12 -7.37037 136.91969 37821 ft 482 kts 323°
2026-05-07 06:13 -7.31703 136.87877 37821 ft 482 kts 323°
2026-05-07 06:13 -7.26364 136.83782 37819 ft 482 kts 323°
2026-05-07 06:14 -7.21030 136.79692 37818 ft 482 kts 323°
2026-05-07 06:14 -7.15694 136.75602 37817 ft 482 kts 323°
2026-05-07 06:15 -7.10359 136.71514 37814 ft 482 kts 323°
2026-05-07 06:15 -7.05018 136.67423 37821 ft 482 kts 323°
2026-05-07 06:16 -6.99684 136.63338 37821 ft 482 kts 323°
2026-05-07 06:16 -6.94346 136.59251 37818 ft 482 kts 323°
2026-05-07 06:17 -6.89044 136.55193 37820 ft 482 kts 323°
2026-05-07 06:17 -6.83690 136.51097 37812 ft 483 kts 323°
2026-05-07 06:18 -6.78347 136.47009 37815 ft 482 kts 323°
2026-05-07 06:18 -6.73001 136.42921 37816 ft 483 kts 323°
2026-05-07 06:19 -6.67654 136.38834 37814 ft 482 kts 323°
2026-05-07 06:19 -6.62304 136.34745 37814 ft 483 kts 323°
2026-05-07 06:20 -6.56949 136.30653 37817 ft 483 kts 324°
2026-05-07 06:20 -6.51633 136.26593 37813 ft 483 kts 323°
2026-05-07 06:21 -6.46264 136.22493 37814 ft 484 kts 324°
2026-05-07 06:21 -6.40903 136.18400 37812 ft 483 kts 323°
2026-05-07 06:22 -6.35537 136.14305 37812 ft 485 kts 323°
2026-05-07 06:22 -6.27479 136.08157 37815 ft 486 kts 324°
2026-05-07 06:23 -6.22078 136.04037 37813 ft 489 kts 324°
2026-05-07 06:23 -6.16661 135.99907 37812 ft 488 kts 323°
2026-05-07 06:24 -6.11276 135.95802 37812 ft 489 kts 323°
2026-05-07 06:24 -6.05858 135.91673 37812 ft 488 kts 323°
2026-05-07 06:25 -6.00444 135.87548 37811 ft 489 kts 324°
2026-05-07 06:25 -5.95011 135.83409 37809 ft 491 kts 324°
2026-05-07 06:26 -5.89563 135.79260 37813 ft 492 kts 323°
2026-05-07 06:26 -5.84109 135.75108 37813 ft 492 kts 324°
2026-05-07 06:27 -5.78667 135.70966 37811 ft 491 kts 323°
2026-05-07 06:27 -5.73222 135.66823 37812 ft 491 kts 323°
2026-05-07 06:28 -5.67769 135.62674 37813 ft 492 kts 323°
2026-05-07 06:28 -5.62302 135.58516 37808 ft 493 kts 323°
2026-05-07 06:29 -5.56835 135.54358 37806 ft 492 kts 323°
2026-05-07 06:29 -5.51375 135.50209 37807 ft 492 kts 323°
2026-05-07 06:30 -5.45911 135.46056 37807 ft 492 kts 324°
2026-05-07 06:30 -5.40486 135.41934 37803 ft 493 kts 323°
2026-05-07 06:31 -5.34991 135.37759 37810 ft 497 kts 323°
2026-05-07 06:31 -5.29476 135.33570 37807 ft 497 kts 323°
2026-05-07 06:32 -5.23970 135.29389 37804 ft 496 kts 323°
2026-05-07 06:32 -5.18463 135.25208 37804 ft 496 kts 323°
2026-05-07 06:33 -5.12949 135.21023 37807 ft 496 kts 323°
2026-05-07 06:33 -5.07432 135.16836 37804 ft 496 kts 323°
2026-05-07 06:34 -5.01921 135.12655 37804 ft 496 kts 323°
2026-05-07 06:34 -4.96414 135.08479 37804 ft 496 kts 323°
2026-05-07 06:35 -4.90937 135.04325 37804 ft 496 kts 323°
2026-05-07 06:35 -4.85428 135.00148 37805 ft 496 kts 323°
2026-05-07 06:36 -4.79919 134.95972 37802 ft 496 kts 323°
2026-05-07 06:36 -4.74405 134.91794 37802 ft 497 kts 323°
2026-05-07 06:37 -4.68890 134.87614 37801 ft 497 kts 323°
2026-05-07 06:37 -4.63377 134.83438 37802 ft 497 kts 323°
2026-05-07 06:38 -4.57866 134.79264 37796 ft 497 kts 323°
2026-05-07 06:38 -4.52336 134.75077 37799 ft 499 kts 324°
2026-05-07 06:39 -4.46787 134.70876 37802 ft 499 kts 323°
2026-05-07 06:39 -4.41248 134.66683 37799 ft 499 kts 324°
2026-05-07 06:40 -4.36637 134.63194 37799 ft 499 kts 323°
2026-05-07 06:40 -4.30196 134.58320 37798 ft 498 kts 323°
2026-05-07 06:41 -4.25560 134.54813 37796 ft 498 kts 323°
2026-05-07 06:41 -4.20025 134.50626 37799 ft 498 kts 323°
2026-05-07 06:42 -4.14497 134.46445 37802 ft 498 kts 323°
2026-05-07 06:42 -4.08997 134.42287 37805 ft 498 kts 323°
2026-05-07 06:43 -4.03468 134.38107 37801 ft 496 kts 323°
2026-05-07 06:43 -3.97959 134.33942 37807 ft 496 kts 323°
2026-05-07 06:44 -3.92449 134.29777 37810 ft 496 kts 323°
2026-05-07 06:44 -3.86941 134.25615 37809 ft 496 kts 323°
2026-05-07 06:45 -3.81435 134.21456 37812 ft 496 kts 323°
2026-05-07 06:45 -3.75921 134.17291 37810 ft 497 kts 323°
2026-05-07 06:46 -3.70430 134.13144 37810 ft 497 kts 323°
2026-05-07 06:46 -3.64910 134.08975 37809 ft 497 kts 323°
2026-05-07 06:47 -3.59379 134.04799 37807 ft 497 kts 323°
2026-05-07 06:47 -3.53853 134.00628 37807 ft 497 kts 323°
2026-05-07 06:48 -3.48330 133.96460 37801 ft 497 kts 323°
2026-05-07 06:48 -3.42842 133.92319 37801 ft 497 kts 323°
2026-05-07 06:49 -3.37329 133.88159 37796 ft 497 kts 323°
2026-05-07 06:49 -3.31806 133.83993 37796 ft 497 kts 323°
2026-05-07 06:50 -3.26287 133.79829 37785 ft 497 kts 323°
2026-05-07 06:50 -3.20770 133.75669 37785 ft 496 kts 323°
2026-05-07 06:51 -3.15250 133.71506 37776 ft 496 kts 323°
2026-05-07 06:51 -3.09736 133.67348 37777 ft 496 kts 323°
2026-05-07 06:52 -3.04216 133.63187 37774 ft 496 kts 323°
2026-05-07 06:52 -2.98701 133.59027 37774 ft 497 kts 323°
2026-05-07 06:53 -2.93285 133.54724 37771 ft 497 kts 321°
2026-05-07 06:53 -2.87962 133.50382 37771 ft 497 kts 321°
2026-05-07 06:54 -2.82596 133.46033 37769 ft 497 kts 321°
2026-05-07 06:54 -2.77203 133.41695 37775 ft 497 kts 321°
2026-05-07 06:55 -2.71808 133.37365 37765 ft 497 kts 321°
2026-05-07 06:55 -2.66418 133.33039 37766 ft 496 kts 321°
2026-05-07 06:56 -2.61030 133.28716 37769 ft 496 kts 321°
2026-05-07 06:56 -2.55640 133.24389 37769 ft 496 kts 321°
2026-05-07 06:57 -2.50249 133.20062 37766 ft 497 kts 322°
2026-05-07 06:57 -2.44883 133.15757 37768 ft 498 kts 322°
2026-05-07 06:58 -2.39475 133.11418 37771 ft 498 kts 321°
2026-05-07 06:58 -2.34070 133.07081 37769 ft 498 kts 322°
2026-05-07 06:59 -2.28658 133.02740 37765 ft 498 kts 322°
2026-05-07 06:59 -2.23279 132.98425 37765 ft 498 kts 322°
2026-05-07 07:00 -2.17884 132.94098 37768 ft 497 kts 321°
2026-05-07 07:00 -2.12486 132.89769 37768 ft 497 kts 321°
2026-05-07 07:01 -2.07094 132.85445 37763 ft 497 kts 321°
2026-05-07 07:01 -2.01704 132.81123 37763 ft 497 kts 321°
2026-05-07 07:02 -1.96311 132.76800 37768 ft 497 kts 321°
2026-05-07 07:02 -1.90922 132.72480 37768 ft 496 kts 321°
2026-05-07 07:03 -1.85572 132.68190 37765 ft 496 kts 321°
2026-05-07 07:03 -1.80189 132.63876 37766 ft 495 kts 321°
2026-05-07 07:04 -1.74808 132.59563 37769 ft 496 kts 321°
2026-05-07 07:04 -1.69421 132.55245 37769 ft 496 kts 321°
2026-05-07 07:05 -1.64069 132.50957 37774 ft 495 kts 322°
2026-05-07 07:05 -1.58691 132.46647 37773 ft 495 kts 321°
2026-05-07 07:06 -1.53319 132.42343 37779 ft 495 kts 322°
2026-05-07 07:06 -1.47945 132.38037 37780 ft 495 kts 322°
2026-05-07 07:07 -1.42562 132.33725 37785 ft 496 kts 322°
2026-05-07 07:07 -1.37172 132.29406 37785 ft 496 kts 321°
2026-05-07 07:08 -1.31824 132.25122 37788 ft 495 kts 322°
2026-05-07 07:08 -1.26444 132.20813 37788 ft 495 kts 321°
2026-05-07 07:09 -1.21070 132.16508 37793 ft 496 kts 321°
2026-05-07 07:09 -1.15682 132.12193 37794 ft 497 kts 322°
2026-05-07 07:10 -1.10287 132.07873 37796 ft 496 kts 321°
2026-05-07 07:10 -1.04909 132.03566 37796 ft 495 kts 321°
2026-05-07 07:11 -0.99540 131.99266 37798 ft 495 kts 321°
2026-05-07 07:11 -0.94160 131.94957 37799 ft 496 kts 322°
2026-05-07 07:12 -0.88770 131.90642 37791 ft 496 kts 322°
2026-05-07 07:12 -0.83378 131.86325 37791 ft 496 kts 322°
2026-05-07 07:13 -0.78042 131.82052 37785 ft 495 kts 322°
2026-05-07 07:13 -0.72672 131.77753 37785 ft 494 kts 322°
2026-05-07 07:14 -0.67299 131.73451 37786 ft 495 kts 322°
2026-05-07 07:14 -0.61913 131.69138 37785 ft 496 kts 322°
2026-05-07 07:15 -0.56537 131.64835 37777 ft 496 kts 322°
2026-05-07 07:15 -0.51163 131.60532 37779 ft 494 kts 322°
2026-05-07 07:16 -0.45800 131.56239 37777 ft 494 kts 322°
2026-05-07 07:16 -0.40434 131.51943 37777 ft 495 kts 322°
2026-05-07 07:17 -0.35058 131.47640 37780 ft 495 kts 322°
2026-05-07 07:17 -0.29689 131.43342 37785 ft 495 kts 322°
2026-05-07 07:18 -0.24351 131.39068 37784 ft 494 kts 322°
2026-05-07 07:18 -0.18999 131.34784 37786 ft 493 kts 322°
2026-05-07 07:19 -0.13645 131.30498 37788 ft 494 kts 322°
2026-05-07 07:19 -0.08274 131.26199 37788 ft 494 kts 322°
2026-05-07 07:20 -0.02906 131.21902 37791 ft 495 kts 322°
2026-05-07 07:20 0.02464 131.17604 37787 ft 494 kts 321°
2026-05-07 07:21 0.07816 131.13320 37787 ft 492 kts 321°
2026-05-07 07:21 0.13170 131.09034 37788 ft 494 kts 321°
2026-05-07 07:22 0.18543 131.04732 37790 ft 495 kts 321°
2026-05-07 07:22 0.23888 131.00454 37785 ft 495 kts 321°
2026-05-07 07:23 0.29265 130.96150 37784 ft 495 kts 321°
2026-05-07 07:23 0.34642 130.91846 37785 ft 495 kts 321°
2026-05-07 07:24 0.40018 130.87542 37788 ft 496 kts 321°
2026-05-07 07:24 0.45410 130.83225 37787 ft 496 kts 321°
2026-05-07 07:25 0.53501 130.76747 37785 ft 496 kts 321°
2026-05-07 07:26 0.58893 130.72431 37788 ft 496 kts 321°
2026-05-07 07:26 0.64252 130.68140 37787 ft 496 kts 321°
2026-05-07 07:27 0.69642 130.63825 37788 ft 496 kts 321°
2026-05-07 07:27 0.75032 130.59510 37788 ft 496 kts 321°
2026-05-07 07:28 0.80419 130.55196 37788 ft 496 kts 321°
2026-05-07 07:28 0.85817 130.50875 37791 ft 496 kts 321°
2026-05-07 07:29 0.91202 130.46562 37788 ft 495 kts 321°
2026-05-07 07:29 0.95680 130.42977 37790 ft 497 kts 321°
2026-05-07 07:30 1.01989 130.37924 37789 ft 497 kts 321°
2026-05-07 07:30 1.07358 130.33625 37790 ft 498 kts 321°
2026-05-07 07:31 1.12760 130.29298 37788 ft 497 kts 321°
2026-05-07 07:31 1.17282 130.25677 37788 ft 497 kts 321°
2026-05-07 07:32 1.22641 130.21384 37790 ft 496 kts 321°
2026-05-07 07:32 1.28019 130.17077 37790 ft 495 kts 321°
2026-05-07 07:33 1.33395 130.12771 37785 ft 495 kts 321°
2026-05-07 07:33 1.38771 130.08464 37787 ft 495 kts 321°
2026-05-07 07:34 1.44146 130.04158 37791 ft 495 kts 321°
2026-05-07 07:34 1.49529 129.99845 37787 ft 495 kts 321°
2026-05-07 07:35 1.54871 129.95566 37785 ft 494 kts 321°
2026-05-07 07:35 1.60235 129.91268 37788 ft 494 kts 321°
2026-05-07 07:36 1.65608 129.86962 37787 ft 494 kts 321°
2026-05-07 07:36 1.70975 129.82661 37785 ft 494 kts 321°
2026-05-07 07:37 1.76341 129.78360 37788 ft 495 kts 321°
2026-05-07 07:37 1.81722 129.74048 37788 ft 496 kts 321°
2026-05-07 07:38 1.87110 129.69729 37785 ft 496 kts 321°
2026-05-07 07:38 1.92464 129.65437 37785 ft 496 kts 321°
2026-05-07 07:39 1.97858 129.61127 37785 ft 496 kts 322°
2026-05-07 07:39 2.03355 129.56960 37788 ft 496 kts 323°
2026-05-07 07:40 2.08902 129.52834 37789 ft 497 kts 323°
2026-05-07 07:40 2.14436 129.48687 37788 ft 497 kts 322°
2026-05-07 07:41 2.19957 129.44525 37787 ft 497 kts 322°
2026-05-07 07:41 2.25442 129.40382 37787 ft 497 kts 322°
2026-05-07 07:42 2.30951 129.36220 37785 ft 497 kts 322°
2026-05-07 07:42 2.36470 129.32053 37788 ft 497 kts 322°
2026-05-07 07:43 2.41989 129.27886 37787 ft 497 kts 322°
2026-05-07 07:43 2.47507 129.23718 37785 ft 497 kts 322°
2026-05-07 07:44 2.53033 129.19544 37788 ft 497 kts 322°
2026-05-07 07:44 2.58549 129.15378 37787 ft 497 kts 322°
2026-05-07 07:45 2.64066 129.11210 37785 ft 497 kts 322°
2026-05-07 07:45 2.69549 129.07068 37787 ft 497 kts 322°
2026-05-07 07:46 2.75061 129.02902 37793 ft 496 kts 322°
2026-05-07 07:46 2.80573 128.98737 37794 ft 497 kts 322°
2026-05-07 07:47 2.86087 128.94569 37790 ft 497 kts 322°
2026-05-07 07:47 2.91598 128.90403 37790 ft 496 kts 322°
2026-05-07 07:48 2.97114 128.86233 37794 ft 496 kts 322°
2026-05-07 07:48 3.02609 128.82078 37793 ft 495 kts 322°
2026-05-07 07:49 3.08106 128.77922 37793 ft 495 kts 322°
2026-05-07 07:49 3.13606 128.73762 37793 ft 495 kts 322°
2026-05-07 07:50 3.19101 128.69605 37790 ft 495 kts 322°
2026-05-07 07:50 3.24594 128.65450 37788 ft 495 kts 322°
2026-05-07 07:51 3.30090 128.61292 37789 ft 495 kts 322°
2026-05-07 07:51 3.35582 128.57136 37793 ft 495 kts 322°
2026-05-07 07:52 3.41072 128.52980 37790 ft 495 kts 322°
2026-05-07 07:52 3.46525 128.48852 37791 ft 495 kts 322°
2026-05-07 07:53 3.52015 128.44696 37795 ft 495 kts 322°
2026-05-07 07:53 3.57541 128.40512 37793 ft 495 kts 322°
2026-05-07 07:54 3.62990 128.36386 37791 ft 494 kts 322°
2026-05-07 07:54 3.68473 128.32233 37793 ft 494 kts 322°
2026-05-07 07:55 3.73949 128.28085 37793 ft 494 kts 322°
2026-05-07 07:55 3.79427 128.23935 37793 ft 494 kts 322°
2026-05-07 07:56 3.84909 128.19781 37796 ft 494 kts 322°
2026-05-07 07:56 3.90383 128.15632 37797 ft 493 kts 322°
2026-05-07 07:57 3.95840 128.11496 37795 ft 491 kts 322°
2026-05-07 07:57 4.01248 128.07397 37793 ft 490 kts 322°
2026-05-07 07:58 4.06690 128.03214 37793 ft 490 kts 321°
2026-05-07 07:58 4.12047 127.99063 37796 ft 490 kts 321°
2026-05-07 07:59 4.17440 127.94893 37796 ft 490 kts 321°
2026-05-07 07:59 4.22836 127.90727 37796 ft 489 kts 321°
2026-05-07 08:00 4.28227 127.86568 37797 ft 489 kts 321°
2026-05-07 08:00 4.33617 127.82409 37799 ft 489 kts 321°
2026-05-07 08:01 4.39005 127.78250 37798 ft 489 kts 321°
2026-05-07 08:01 4.44390 127.74092 37796 ft 489 kts 321°
2026-05-07 08:02 4.49786 127.69925 37795 ft 489 kts 321°
2026-05-07 08:02 4.55149 127.65783 37797 ft 489 kts 321°
2026-05-07 08:03 4.60531 127.61625 37797 ft 488 kts 321°
2026-05-07 08:03 4.65906 127.57471 37799 ft 487 kts 321°
2026-05-07 08:04 4.71275 127.53322 37800 ft 487 kts 321°
2026-05-07 08:04 4.76643 127.49173 37799 ft 487 kts 321°
2026-05-07 08:05 4.82016 127.45018 37795 ft 487 kts 321°
2026-05-07 08:05 4.87387 127.40865 37799 ft 487 kts 321°
2026-05-07 08:06 4.92762 127.36708 37802 ft 487 kts 321°
2026-05-07 08:06 4.98127 127.32557 37801 ft 487 kts 321°
2026-05-07 08:07 5.03461 127.28430 37803 ft 487 kts 321°
2026-05-07 08:07 5.08865 127.24248 37802 ft 487 kts 321°
2026-05-07 08:08 5.14196 127.20120 37800 ft 487 kts 321°
2026-05-07 08:08 5.19567 127.15962 37802 ft 489 kts 321°
2026-05-07 08:09 5.24968 127.11779 37804 ft 490 kts 321°
2026-05-07 08:09 5.30368 127.07596 37804 ft 490 kts 321°
2026-05-07 08:10 5.35769 127.03411 37803 ft 490 kts 321°
2026-05-07 08:10 5.41175 126.99222 37804 ft 490 kts 321°
2026-05-07 08:11 5.46578 126.95033 37801 ft 490 kts 322°
2026-05-07 08:11 5.51942 126.90874 37805 ft 491 kts 322°
2026-05-07 08:12 5.57353 126.86678 37805 ft 492 kts 322°
2026-05-07 08:12 5.62768 126.82479 37804 ft 492 kts 322°
2026-05-07 08:13 5.68182 126.78277 37807 ft 492 kts 322°
2026-05-07 08:13 5.73598 126.74074 37807 ft 492 kts 322°
2026-05-07 08:14 5.79012 126.69871 37807 ft 492 kts 322°
2026-05-07 08:14 5.84428 126.65666 37807 ft 492 kts 322°
2026-05-07 08:15 5.89844 126.61459 37805 ft 492 kts 322°
2026-05-07 08:15 5.95261 126.57251 37807 ft 492 kts 322°
2026-05-07 08:16 6.00678 126.53042 37807 ft 492 kts 322°
2026-05-07 08:16 6.06094 126.48832 37805 ft 492 kts 322°
2026-05-07 08:17 6.11484 126.44642 37808 ft 493 kts 322°
2026-05-07 08:17 6.16896 126.40432 37803 ft 490 kts 322°
2026-05-07 08:18 6.21408 126.36923 37806 ft 489 kts 322°
2026-05-07 08:18 6.26748 126.32768 37806 ft 488 kts 322°
2026-05-07 08:19 6.32117 126.28590 37807 ft 488 kts 322°
2026-05-07 08:19 6.37481 126.24414 37800 ft 488 kts 322°
2026-05-07 08:20 6.42851 126.20233 37798 ft 489 kts 322°
2026-05-07 08:20 6.48234 126.16041 37798 ft 489 kts 322°
2026-05-07 08:21 6.53579 126.11876 37796 ft 489 kts 322°
2026-05-07 08:21 6.58961 126.07682 37796 ft 489 kts 322°
2026-05-07 08:22 6.64342 126.03487 37790 ft 489 kts 322°
2026-05-07 08:22 6.69720 125.99293 37787 ft 489 kts 322°
2026-05-07 08:23 6.75094 125.95107 37783 ft 489 kts 322°
2026-05-07 08:23 6.80468 125.90914 37785 ft 490 kts 322°
2026-05-07 08:24 6.85862 125.86704 37782 ft 490 kts 322°
2026-05-07 08:24 6.91230 125.82523 37780 ft 491 kts 322°
2026-05-07 08:25 6.96624 125.78307 37778 ft 491 kts 322°
2026-05-07 08:25 7.02019 125.74087 37777 ft 491 kts 322°
2026-05-07 08:26 7.10114 125.67760 37808 ft 491 kts 322°
2026-05-07 08:26 7.15512 125.63533 37803 ft 493 kts 322°
2026-05-07 08:27 7.20826 125.59227 37789 ft 493 kts 321°
2026-05-07 08:27 7.26160 125.54862 37794 ft 494 kts 321°
2026-05-07 08:28 7.31511 125.50503 37798 ft 494 kts 321°
2026-05-07 08:28 7.36869 125.46154 37799 ft 495 kts 321°
2026-05-07 08:29 7.42253 125.41794 37805 ft 496 kts 321°
2026-05-07 08:29 7.47625 125.37432 37806 ft 496 kts 321°
2026-05-07 08:30 7.52996 125.33064 37813 ft 496 kts 321°
2026-05-07 08:30 7.58373 125.28692 37813 ft 496 kts 321°
2026-05-07 08:31 7.63750 125.24321 37817 ft 496 kts 320°
2026-05-07 08:31 7.69078 125.19989 37818 ft 495 kts 320°
2026-05-07 08:32 7.74441 125.15627 37824 ft 494 kts 320°
2026-05-07 08:32 7.79784 125.11280 37825 ft 493 kts 320°
2026-05-07 08:33 7.85109 125.06946 38143 ft 489 kts 320°
2026-05-07 08:33 7.87751 125.04795 38402 ft 488 kts 320°
2026-05-07 08:33 7.90387 125.02648 38644 ft 486 kts 320°
2026-05-07 08:34 7.93013 125.00510 38856 ft 485 kts 320°
2026-05-07 08:34 7.95633 124.98376 39053 ft 483 kts 320°
2026-05-07 08:34 7.98250 124.96246 39267 ft 482 kts 320°
2026-05-07 08:34 8.00818 124.94158 39422 ft 482 kts 320°
2026-05-07 08:35 8.03430 124.92030 39531 ft 483 kts 320°
2026-05-07 08:35 8.06046 124.89898 39614 ft 484 kts 320°
2026-05-07 08:35 8.08667 124.87762 39732 ft 484 kts 320°
2026-05-07 08:35 8.11283 124.85629 39833 ft 485 kts 320°
2026-05-07 08:36 8.16541 124.81343 39864 ft 486 kts 321°
2026-05-07 08:36 8.21809 124.77048 39858 ft 487 kts 320°
2026-05-07 08:37 8.27081 124.72748 39852 ft 487 kts 320°
2026-05-07 08:37 8.32322 124.68474 39836 ft 487 kts 321°
2026-05-07 08:38 8.37594 124.64172 39838 ft 488 kts 321°
2026-05-07 08:38 8.43070 124.60125 39831 ft 488 kts 328°
2026-05-07 08:39 8.48924 124.56638 39815 ft 490 kts 330°
2026-05-07 08:39 8.54853 124.53232 39820 ft 491 kts 330°
2026-05-07 08:40 8.60792 124.49828 39814 ft 490 kts 330°
2026-05-07 08:40 8.66722 124.46413 39798 ft 491 kts 330°
2026-05-07 08:41 8.72663 124.42983 39811 ft 492 kts 330°
2026-05-07 08:41 8.78614 124.39544 39801 ft 493 kts 329°
2026-05-07 08:42 8.84552 124.36111 39793 ft 496 kts 329°
2026-05-07 08:42 8.90583 124.32624 39808 ft 496 kts 329°
2026-05-07 08:43 8.96539 124.29180 39797 ft 496 kts 329°
2026-05-07 08:43 9.02542 124.25706 39798 ft 497 kts 329°
2026-05-07 08:44 9.08542 124.22234 39813 ft 497 kts 329°
2026-05-07 08:44 9.14511 124.18768 39798 ft 493 kts 329°
2026-05-07 08:45 9.20444 124.15322 39813 ft 491 kts 329°
2026-05-07 08:45 9.26376 124.11877 39809 ft 491 kts 329°
2026-05-07 08:46 9.32301 124.08436 39816 ft 491 kts 329°
2026-05-07 08:46 9.38236 124.04988 39801 ft 491 kts 329°
2026-05-07 08:47 9.44173 124.01561 39820 ft 491 kts 329°
2026-05-07 08:47 9.50087 123.98155 39814 ft 492 kts 329°
2026-05-07 08:48 9.56074 123.94682 39820 ft 492 kts 329°
2026-05-07 08:48 9.61978 123.91243 39816 ft 492 kts 329°
2026-05-07 08:49 9.67921 123.87784 39817 ft 493 kts 329°
2026-05-07 08:49 9.73868 123.84327 39815 ft 492 kts 329°
2026-05-07 08:50 9.79812 123.80870 39805 ft 493 kts 329°
2026-05-07 08:50 9.85769 123.77404 39817 ft 493 kts 329°
2026-05-07 08:51 9.91718 123.73945 39820 ft 493 kts 329°
2026-05-07 08:51 9.97664 123.70481 39824 ft 492 kts 329°
2026-05-07 08:52 10.03601 123.67012 39835 ft 493 kts 329°
2026-05-07 08:52 10.09563 123.63529 39834 ft 496 kts 329°
2026-05-07 08:53 10.15574 123.60019 39840 ft 501 kts 329°
2026-05-07 08:53 10.21573 123.56515 39845 ft 500 kts 329°
2026-05-07 08:54 10.27600 123.52993 39841 ft 499 kts 329°
2026-05-07 08:54 10.33607 123.49483 39848 ft 498 kts 329°
2026-05-07 08:55 10.39633 123.45968 39845 ft 499 kts 329°
2026-05-07 08:55 10.45656 123.42453 39844 ft 499 kts 329°
2026-05-07 08:56 10.51671 123.38941 39847 ft 498 kts 329°
2026-05-07 08:56 10.57676 123.35433 39851 ft 498 kts 329°
2026-05-07 08:57 10.63684 123.31922 39851 ft 497 kts 329°
2026-05-07 08:57 10.69657 123.28433 39845 ft 498 kts 329°
2026-05-07 08:58 10.75674 123.24919 39849 ft 498 kts 329°
2026-05-07 08:58 10.81696 123.21393 39843 ft 500 kts 329°
2026-05-07 08:59 10.87720 123.17853 39844 ft 500 kts 329°
2026-05-07 08:59 10.93748 123.14312 39837 ft 500 kts 329°
2026-05-07 09:00 10.99817 123.10756 39845 ft 505 kts 329°
2026-05-07 09:00 11.05932 123.07168 39838 ft 506 kts 329°
2026-05-07 09:01 11.12027 123.03583 39838 ft 505 kts 329°
2026-05-07 09:01 11.18113 123.00003 39843 ft 505 kts 329°
2026-05-07 09:02 11.24195 122.96426 39842 ft 504 kts 329°
2026-05-07 09:02 11.30231 122.92876 39840 ft 503 kts 329°
2026-05-07 09:03 11.36297 122.89312 39840 ft 504 kts 329°
2026-05-07 09:03 11.42373 122.85737 39840 ft 503 kts 329°
2026-05-07 09:04 11.48421 122.82168 39838 ft 500 kts 329°
2026-05-07 09:04 11.54446 122.78613 39850 ft 500 kts 329°
2026-05-07 09:05 11.60434 122.75082 39847 ft 500 kts 329°
2026-05-07 09:05 11.66310 122.71279 39831 ft 499 kts 325°
2026-05-07 09:06 11.72057 122.67288 39828 ft 499 kts 324°
2026-05-07 09:06 11.77823 122.63326 39842 ft 500 kts 325°
2026-05-07 09:07 11.83586 122.59424 39837 ft 499 kts 325°
2026-05-07 09:07 11.89364 122.55532 39834 ft 497 kts 325°
2026-05-07 09:08 11.95133 122.51646 39837 ft 497 kts 325°
2026-05-07 09:08 12.00904 122.47752 39834 ft 496 kts 325°
2026-05-07 09:09 12.05692 122.44519 39844 ft 496 kts 325°
2026-05-07 09:09 12.11452 122.40629 39826 ft 495 kts 324°
2026-05-07 09:10 12.17190 122.36751 39839 ft 493 kts 324°
2026-05-07 09:10 12.22913 122.32880 39840 ft 494 kts 324°
2026-05-07 09:11 12.28655 122.28995 39836 ft 494 kts 324°
2026-05-07 09:11 12.34390 122.25114 39840 ft 494 kts 324°
2026-05-07 09:12 12.40084 122.21245 39831 ft 494 kts 324°
2026-05-07 09:12 12.45776 122.17285 39840 ft 495 kts 324°
2026-05-07 09:13 12.51470 122.13307 39826 ft 495 kts 324°
2026-05-07 09:13 12.57172 122.09334 39842 ft 495 kts 324°
2026-05-07 09:14 12.62886 122.05361 39843 ft 496 kts 324°
2026-05-07 09:14 12.68557 122.01416 39840 ft 495 kts 324°
2026-05-07 09:15 12.74259 121.97447 39842 ft 495 kts 324°
2026-05-07 09:15 12.79954 121.93481 39849 ft 494 kts 323°
2026-05-07 09:16 12.85625 121.89530 39842 ft 493 kts 323°
2026-05-07 09:16 12.91297 121.85575 39836 ft 493 kts 323°
2026-05-07 09:17 12.96971 121.81616 39846 ft 493 kts 323°
2026-05-07 09:17 13.02641 121.77658 39850 ft 492 kts 323°
2026-05-07 09:18 13.08253 121.73739 39850 ft 491 kts 323°
2026-05-07 09:18 13.13896 121.69795 39851 ft 491 kts 323°
2026-05-07 09:19 13.19539 121.65850 39838 ft 491 kts 323°
2026-05-07 09:19 13.25181 121.61902 39850 ft 491 kts 323°
2026-05-07 09:20 13.30827 121.57950 39847 ft 491 kts 323°
2026-05-07 09:20 13.36474 121.53995 39850 ft 491 kts 323°
2026-05-07 09:21 13.42121 121.50038 39857 ft 490 kts 323°
2026-05-07 09:21 13.47746 121.46094 39843 ft 489 kts 323°
2026-05-07 09:22 13.53369 121.42149 39845 ft 489 kts 323°
2026-05-07 09:22 13.58988 121.38210 39843 ft 489 kts 323°
2026-05-07 09:23 13.64588 121.34313 39844 ft 489 kts 323°
2026-05-07 09:23 13.70030 121.30526 39840 ft 489 kts 323°
2026-05-07 09:24 13.75629 121.26628 39837 ft 489 kts 323°
2026-05-07 09:24 13.81262 121.22702 39841 ft 489 kts 323°
2026-05-07 09:25 13.86890 121.18776 39835 ft 489 kts 323°
2026-05-07 09:25 13.92546 121.14883 39834 ft 490 kts 327°
2026-05-07 09:26 13.98841 121.12158 39848 ft 494 kts 345°
2026-05-07 09:26 14.05588 121.10694 39837 ft 496 kts 347°
2026-05-07 09:27 14.12382 121.09436 39840 ft 497 kts 347°
2026-05-07 09:28 14.22607 121.07543 39835 ft 498 kts 347°
2026-05-07 09:28 14.29380 121.06259 39829 ft 497 kts 347°
2026-05-07 09:29 14.36190 121.04963 39831 ft 498 kts 347°
2026-05-07 09:29 14.43012 121.03660 39835 ft 498 kts 348°
2026-05-07 09:30 14.49721 121.02052 39826 ft 492 kts 338°
2026-05-07 09:30 14.55757 120.98851 39826 ft 488 kts 327°
2026-05-07 09:31 14.61437 120.95071 39829 ft 488 kts 325°
2026-05-07 09:31 14.67084 120.91193 39831 ft 487 kts 325°
2026-05-07 09:32 14.72740 120.87328 39834 ft 487 kts 326°
2026-05-07 09:32 14.78400 120.83484 39832 ft 485 kts 326°
2026-05-07 09:33 14.84033 120.79655 39837 ft 485 kts 326°
2026-05-07 09:33 14.89636 120.75847 39835 ft 484 kts 326°
2026-05-07 09:34 14.95273 120.72016 39837 ft 485 kts 326°
2026-05-07 09:34 15.00913 120.68182 39835 ft 484 kts 326°
2026-05-07 09:35 15.06539 120.64352 39834 ft 484 kts 326°
2026-05-07 09:35 15.12162 120.60521 39828 ft 484 kts 326°
2026-05-07 09:36 15.17784 120.56690 39831 ft 484 kts 326°
2026-05-07 09:36 15.23548 120.53061 39829 ft 483 kts 330°
2026-05-07 09:37 15.29508 120.49836 39829 ft 484 kts 332°
2026-05-07 09:37 15.35436 120.46628 39839 ft 483 kts 330°
2026-05-07 09:38 15.41364 120.43332 39842 ft 484 kts 330°
2026-05-07 09:38 15.47275 120.40009 39844 ft 483 kts 330°
2026-05-07 09:39 15.53161 120.36682 39849 ft 480 kts 330°
2026-05-07 09:39 15.59030 120.33364 39848 ft 480 kts 330°
2026-05-07 09:40 15.64911 120.30046 39851 ft 482 kts 330°
2026-05-07 09:40 15.70798 120.26731 39848 ft 481 kts 330°
2026-05-07 09:41 15.76674 120.23409 39851 ft 482 kts 330°
2026-05-07 09:41 15.82575 120.20068 39846 ft 483 kts 330°
2026-05-07 09:42 15.88474 120.16729 39846 ft 481 kts 330°
2026-05-07 09:42 15.94348 120.13404 39846 ft 480 kts 330°
2026-05-07 09:43 16.00178 120.10101 39839 ft 481 kts 331°
2026-05-07 09:43 16.06059 120.06768 39837 ft 480 kts 330°
2026-05-07 09:44 16.11911 120.03447 39843 ft 479 kts 331°
2026-05-07 09:44 16.17773 120.00119 39841 ft 479 kts 331°
2026-05-07 09:45 16.23614 119.96801 39838 ft 479 kts 331°
2026-05-07 09:45 16.29446 119.93486 39838 ft 479 kts 331°
2026-05-07 09:46 16.35285 119.90164 39835 ft 478 kts 331°
2026-05-07 09:46 16.41141 119.86831 39837 ft 480 kts 331°
2026-05-07 09:47 16.47012 119.83486 39838 ft 481 kts 331°
2026-05-07 09:47 16.52899 119.80130 39846 ft 482 kts 331°
2026-05-07 09:48 16.58766 119.76784 39844 ft 480 kts 331°
2026-05-07 09:48 16.64611 119.73447 39844 ft 479 kts 331°
2026-05-07 09:49 16.70437 119.70120 39845 ft 480 kts 331°
2026-05-07 09:49 16.76297 119.66769 39845 ft 478 kts 331°
2026-05-07 09:50 16.82134 119.63431 39849 ft 478 kts 331°
2026-05-07 09:50 16.87968 119.60091 39847 ft 478 kts 331°
2026-05-07 09:51 16.93812 119.56743 39852 ft 479 kts 331°
2026-05-07 09:51 16.99627 119.53410 39851 ft 481 kts 331°
2026-05-07 09:52 17.05487 119.50048 39854 ft 479 kts 331°
2026-05-07 09:52 17.11324 119.46698 39856 ft 479 kts 330°
2026-05-07 09:53 17.17178 119.43334 39855 ft 479 kts 330°
2026-05-07 09:53 17.23019 119.39976 39854 ft 478 kts 330°
2026-05-07 09:54 17.28855 119.36619 39855 ft 479 kts 330°
2026-05-07 09:54 17.34693 119.33258 39856 ft 479 kts 330°
2026-05-07 09:55 17.40498 119.29913 39854 ft 478 kts 330°
2026-05-07 09:55 17.46337 119.26546 39856 ft 478 kts 330°
2026-05-07 09:56 17.52171 119.23180 39855 ft 478 kts 330°
2026-05-07 09:56 17.57992 119.19819 39857 ft 477 kts 330°
2026-05-07 09:57 17.63809 119.16458 39857 ft 477 kts 330°
2026-05-07 09:57 17.69616 119.13099 39859 ft 476 kts 330°
2026-05-07 09:58 17.75421 119.09740 39858 ft 476 kts 330°
2026-05-07 09:58 17.81229 119.06376 39858 ft 476 kts 330°
2026-05-07 09:59 17.86984 119.03040 39862 ft 476 kts 330°
2026-05-07 09:59 17.92795 118.99670 39862 ft 476 kts 330°
2026-05-07 10:00 17.98488 118.96116 39868 ft 475 kts 323°
2026-05-07 10:00 18.03349 118.91425 39870 ft 475 kts 314°
2026-05-07 10:01 18.07894 118.86385 39869 ft 475 kts 313°
2026-05-07 10:01 18.12395 118.81287 39874 ft 475 kts 313°
2026-05-07 10:02 18.16870 118.76236 39869 ft 475 kts 313°
2026-05-07 10:02 18.21374 118.71173 39870 ft 474 kts 313°
2026-05-07 10:03 18.25895 118.66095 39870 ft 474 kts 313°
2026-05-07 10:03 18.30405 118.61026 39870 ft 475 kts 313°
2026-05-07 10:04 18.34918 118.55949 39871 ft 475 kts 313°
2026-05-07 10:04 18.39434 118.50863 39870 ft 475 kts 313°
2026-05-07 10:05 18.43945 118.45778 39876 ft 475 kts 313°
2026-05-07 10:05 18.48426 118.40723 39876 ft 475 kts 313°
2026-05-07 10:06 18.52963 118.35601 39877 ft 474 kts 313°
2026-05-07 10:06 18.57432 118.30552 39881 ft 473 kts 313°
2026-05-07 10:07 18.61924 118.25472 39879 ft 473 kts 313°
2026-05-07 10:07 18.66410 118.20394 39879 ft 473 kts 313°
2026-05-07 10:08 18.70899 118.15310 39878 ft 473 kts 313°
2026-05-07 10:08 18.74628 118.11083 39878 ft 473 kts 313°
2026-05-07 10:09 18.79114 118.05993 39878 ft 473 kts 313°
2026-05-07 10:09 18.83593 118.00908 39880 ft 473 kts 313°
2026-05-07 10:10 18.88795 117.94996 39884 ft 471 kts 312°
2026-05-07 10:10 18.92526 117.90752 39884 ft 470 kts 312°
2026-05-07 10:11 18.96949 117.85718 39884 ft 470 kts 312°
2026-05-07 10:11 19.01397 117.80651 39883 ft 470 kts 312°
2026-05-07 10:12 19.05844 117.75584 39884 ft 470 kts 312°
2026-05-07 10:12 19.10287 117.70512 39887 ft 470 kts 312°
2026-05-07 10:13 19.14730 117.65435 39887 ft 470 kts 312°
2026-05-07 10:13 19.19170 117.60358 39886 ft 470 kts 312°
2026-05-07 10:14 19.23611 117.55277 39887 ft 470 kts 312°
2026-05-07 10:14 19.28037 117.50209 39887 ft 468 kts 312°
2026-05-07 10:15 19.32461 117.45138 39890 ft 468 kts 312°
2026-05-07 10:15 19.36840 117.40114 39889 ft 467 kts 312°
2026-05-07 10:16 19.41245 117.35057 39890 ft 467 kts 312°
2026-05-07 10:16 19.45653 117.29993 39891 ft 467 kts 312°
2026-05-07 10:17 19.50062 117.24922 39893 ft 467 kts 312°
2026-05-07 10:17 19.54466 117.19853 39892 ft 467 kts 312°
2026-05-07 10:18 19.58869 117.14780 39892 ft 467 kts 313°
2026-05-07 10:18 19.63268 117.09707 39895 ft 466 kts 313°
2026-05-07 10:19 19.67651 117.04649 39892 ft 465 kts 313°
2026-05-07 10:19 19.72027 116.99595 39891 ft 465 kts 313°
2026-05-07 10:20 19.76403 116.94535 39895 ft 465 kts 313°
2026-05-07 10:20 19.80775 116.89477 39894 ft 465 kts 313°
2026-05-07 10:21 19.85118 116.84447 39894 ft 465 kts 313°
2026-05-07 10:21 19.89478 116.79394 39897 ft 464 kts 313°
2026-05-07 10:22 19.93834 116.74340 39892 ft 463 kts 313°
2026-05-07 10:22 19.98177 116.69271 39892 ft 463 kts 310°
2026-05-07 10:23 20.01766 116.63580 39893 ft 464 kts 300°
2026-05-07 10:23 20.04838 116.57524 39898 ft 465 kts 298°
2026-05-07 10:24 20.07821 116.51426 39899 ft 464 kts 298°
2026-05-07 10:24 20.10780 116.45379 39897 ft 463 kts 299°
2026-05-07 10:25 20.13768 116.39304 39895 ft 463 kts 299°
2026-05-07 10:25 20.16759 116.33232 39898 ft 463 kts 299°
2026-05-07 10:26 20.19749 116.27156 39900 ft 463 kts 299°
2026-05-07 10:26 20.22734 116.21083 39904 ft 462 kts 299°
2026-05-07 10:27 20.25712 116.15016 39904 ft 461 kts 299°
2026-05-07 10:27 20.28683 116.08956 39902 ft 461 kts 299°
2026-05-07 10:28 20.31652 116.02894 39904 ft 461 kts 299°
2026-05-07 10:28 20.34627 115.96826 39903 ft 461 kts 299°
2026-05-07 10:29 20.37568 115.90802 39902 ft 461 kts 299°
2026-05-07 10:29 20.40523 115.84745 39915 ft 460 kts 299°
2026-05-07 10:30 20.44930 115.75703 39906 ft 457 kts 299°
2026-05-07 10:30 20.47857 115.69693 39574 ft 456 kts 299°
2026-05-07 10:31 20.49315 115.66696 39123 ft 455 kts 299°
2026-05-07 10:31 20.50773 115.63698 38680 ft 455 kts 299°
2026-05-07 10:31 20.52230 115.60700 38163 ft 455 kts 299°
2026-05-07 10:31 20.53694 115.57700 37627 ft 456 kts 300°
2026-05-07 10:32 20.55366 115.54825 37142 ft 457 kts 307°
2026-05-07 10:32 20.57396 115.52210 36633 ft 459 kts 314°
2026-05-07 10:32 20.59612 115.49748 36149 ft 462 kts 315°
2026-05-07 10:32 20.61894 115.47318 35671 ft 465 kts 316°
2026-05-07 10:33 20.64222 115.44891 35205 ft 468 kts 316°
2026-05-07 10:33 20.66542 115.42489 34750 ft 471 kts 316°
2026-05-07 10:33 20.68901 115.40045 34301 ft 474 kts 316°
2026-05-07 10:33 20.71296 115.37555 33836 ft 477 kts 316°
2026-05-07 10:34 20.73646 115.35103 33322 ft 479 kts 316°
2026-05-07 10:34 20.76037 115.32600 32825 ft 482 kts 315°
2026-05-07 10:34 20.78433 115.30088 32342 ft 484 kts 315°
2026-05-07 10:34 20.80845 115.27556 31862 ft 487 kts 315°
2026-05-07 10:35 20.83261 115.25017 31392 ft 486 kts 315°
2026-05-07 10:35 20.85657 115.22499 30926 ft 479 kts 315°
2026-05-07 10:35 20.88006 115.20031 30462 ft 467 kts 314°
2026-05-07 10:35 20.90278 115.17643 29991 ft 449 kts 314°
2026-05-07 10:36 20.92501 115.15302 29492 ft 446 kts 314°
2026-05-07 10:36 20.94692 115.12994 28950 ft 438 kts 314°
2026-05-07 10:36 20.96835 115.10738 28433 ft 427 kts 314°
2026-05-07 10:36 20.98932 115.08528 27922 ft 416 kts 314°
2026-05-07 10:37 21.00983 115.06367 27422 ft 412 kts 314°
2026-05-07 10:37 21.03006 115.04234 26953 ft 405 kts 314°
2026-05-07 10:37 21.05008 115.02121 26460 ft 402 kts 314°
2026-05-07 10:37 21.06989 115.00030 25992 ft 399 kts 314°
2026-05-07 10:38 21.08956 114.97952 25532 ft 395 kts 314°
2026-05-07 10:38 21.10875 114.95927 25065 ft 380 kts 314°
2026-05-07 10:38 21.12718 114.93981 24609 ft 365 kts 313°
2026-05-07 10:38 21.14494 114.92106 24159 ft 351 kts 313°
2026-05-07 10:39 21.16208 114.90294 23731 ft 342 kts 313°
2026-05-07 10:39 21.17877 114.88529 23262 ft 332 kts 313°
2026-05-07 10:39 21.19489 114.86824 22703 ft 322 kts 313°
2026-05-07 10:39 21.21063 114.85158 22123 ft 314 kts 313°
2026-05-07 10:40 21.22577 114.83554 21556 ft 306 kts 313°
2026-05-07 10:40 21.24095 114.81946 21019 ft 308 kts 313°
2026-05-07 10:40 21.25625 114.80322 20463 ft 311 kts 313°
2026-05-07 10:40 21.27169 114.78685 19933 ft 313 kts 313°
2026-05-07 10:41 21.28726 114.77034 19436 ft 316 kts 313°
2026-05-07 10:41 21.30292 114.75374 19107 ft 318 kts 313°
2026-05-07 10:41 21.31884 114.73684 18751 ft 326 kts 313°
2026-05-07 10:41 21.33504 114.71966 18443 ft 328 kts 313°
2026-05-07 10:42 21.35133 114.70238 18058 ft 332 kts 313°
2026-05-07 10:42 21.36801 114.68467 17573 ft 341 kts 313°
2026-05-07 10:42 21.38492 114.66672 17095 ft 341 kts 313°
2026-05-07 10:42 21.40174 114.64887 16444 ft 340 kts 313°
2026-05-07 10:43 21.41864 114.63091 15847 ft 344 kts 313°
2026-05-07 10:43 21.43569 114.61279 15317 ft 346 kts 313°
2026-05-07 10:43 21.45285 114.59455 14833 ft 348 kts 314°
2026-05-07 10:43 21.47006 114.57634 14471 ft 346 kts 314°
2026-05-07 10:44 21.48910 114.56031 14332 ft 349 kts 327°
2026-05-07 10:44 21.51101 114.54997 14223 ft 350 kts 339°
2026-05-07 10:44 21.53410 114.54190 14075 ft 343 kts 340°
2026-05-07 10:44 21.55648 114.53433 13928 ft 331 kts 340°
2026-05-07 10:45 21.57775 114.52611 13838 ft 317 kts 333°
2026-05-07 10:45 21.59603 114.51413 13830 ft 304 kts 319°
2026-05-07 10:45 21.61084 114.49795 13635 ft 303 kts 308°
2026-05-07 10:45 21.62387 114.48012 13391 ft 303 kts 306°
2026-05-07 10:46 21.63654 114.46204 13140 ft 302 kts 305°
2026-05-07 10:46 21.64907 114.44398 12890 ft 302 kts 305°
2026-05-07 10:46 21.66156 114.42592 12642 ft 301 kts 305°
2026-05-07 10:46 21.67402 114.40788 12400 ft 300 kts 305°
2026-05-07 10:47 21.68642 114.38990 12148 ft 299 kts 305°
2026-05-07 10:47 21.69879 114.37195 11897 ft 298 kts 305°
2026-05-07 10:47 21.71112 114.35405 11665 ft 297 kts 305°
2026-05-07 10:47 21.72340 114.33621 11423 ft 297 kts 305°
2026-05-07 10:48 21.73568 114.31836 11195 ft 296 kts 305°
2026-05-07 10:48 21.74775 114.30082 10957 ft 295 kts 305°
2026-05-07 10:48 21.75996 114.28307 10726 ft 295 kts 304°
2026-05-07 10:48 21.77216 114.26532 10491 ft 294 kts 304°
2026-05-07 10:49 21.78428 114.24768 10284 ft 293 kts 304°
2026-05-07 10:49 21.79643 114.23000 10180 ft 293 kts 304°
2026-05-07 10:49 21.80853 114.21238 10074 ft 292 kts 304°
2026-05-07 10:49 21.82062 114.19477 9941 ft 292 kts 304°
2026-05-07 10:50 21.83270 114.17718 9845 ft 292 kts 304°
2026-05-07 10:50 21.84471 114.15967 9721 ft 291 kts 304°
2026-05-07 10:50 21.85677 114.14208 9590 ft 291 kts 304°
2026-05-07 10:50 21.86876 114.12459 9474 ft 290 kts 304°
2026-05-07 10:51 21.88074 114.10711 9282 ft 290 kts 304°
2026-05-07 10:51 21.89269 114.08968 9065 ft 288 kts 304°
2026-05-07 10:51 21.90437 114.07262 8810 ft 286 kts 304°
2026-05-07 10:51 21.91616 114.05540 8559 ft 285 kts 304°
2026-05-07 10:52 21.92791 114.03822 8330 ft 284 kts 304°
2026-05-07 10:52 21.93959 114.02116 8087 ft 283 kts 305°
2026-05-07 10:52 21.95130 114.00404 7845 ft 282 kts 305°
2026-05-07 10:52 21.96292 113.98705 7603 ft 281 kts 305°
2026-05-07 10:53 21.97451 113.97010 7369 ft 280 kts 305°
2026-05-07 10:53 21.98606 113.95321 7128 ft 279 kts 305°
2026-05-07 10:53 21.99757 113.93636 6886 ft 278 kts 305°
2026-05-07 10:53 22.00905 113.91955 6659 ft 278 kts 305°
2026-05-07 10:54 22.02048 113.90282 6422 ft 277 kts 305°
2026-05-07 10:54 22.03186 113.88615 6193 ft 275 kts 305°
2026-05-07 10:54 22.04322 113.86949 5935 ft 275 kts 305°
2026-05-07 10:54 22.05452 113.85293 5697 ft 274 kts 305°
2026-05-07 10:55 22.06577 113.83643 5457 ft 273 kts 305°
2026-05-07 10:55 22.07685 113.82019 5301 ft 267 kts 305°
2026-05-07 10:55 22.08795 113.80391 5111 ft 271 kts 306°
2026-05-07 10:55 22.09534 113.79307 4921 ft 270 kts 305°
2026-05-07 10:56 22.11240 113.77374 4628 ft 261 kts 327°
2026-05-07 10:56 22.12812 113.76483 4478 ft 249 kts 334°
2026-05-07 10:56 22.14329 113.75737 4351 ft 237 kts 334°
2026-05-07 10:56 22.15789 113.75023 4208 ft 224 kts 334°
2026-05-07 10:57 22.16733 113.74559 4118 ft 219 kts 334°
2026-05-07 10:57 22.18558 113.73656 4076 ft 217 kts 334°
2026-05-07 10:57 22.19486 113.73195 4042 ft 217 kts 334°
2026-05-07 10:57 22.21232 113.72326 3917 ft 200 kts 334°
2026-05-07 10:58 22.22081 113.71917 3823 ft 197 kts 336°
2026-05-07 10:58 22.23865 113.71815 3509 ft 200 kts 22°
2026-05-07 10:58 22.24669 113.72340 3359 ft 200 kts 39°
2026-05-07 10:58 22.25720 113.73308 3113 ft 198 kts 43°
2026-05-07 10:59 22.26746 113.74297 2851 ft 198 kts 43°
2026-05-07 10:59 22.27755 113.75311 2514 ft 199 kts 48°
2026-05-07 10:59 22.28438 113.76588 2171 ft 195 kts 73°
2026-05-07 10:59 22.28837 113.77975 1934 ft 190 kts 73°
2026-05-07 11:00 22.29287 113.79273 1673 ft 178 kts 73°
2026-05-07 11:00 22.29675 113.80479 1452 ft 168 kts 74°
2026-05-07 11:00 22.30044 113.81635 1244 ft 158 kts 74°
2026-05-07 11:00 22.30397 113.82725 1040 ft 148 kts 75°
2026-05-07 11:01 22.30727 113.83754 887 ft 144 kts 75°
2026-05-07 11:01 22.31058 113.84790 715 ft 146 kts 73°
2026-05-07 11:01 22.31383 113.85824 536 ft 145 kts 73°
2026-05-07 11:01 22.31712 113.86856 330 ft 146 kts 73°
2026-05-07 11:02 22.32043 113.87853 144 ft 140 kts 73°
2026-05-07 11:02 22.32345 113.88830 38 ft 130 kts 71°
2026-05-07 11:02 22.32597 113.89595 38 ft 87 kts 71°
2026-05-07 11:02 22.32747 113.90059 38 ft 43 kts 71°
2026-05-07 11:03 22.32813 113.90277 38 ft 28 kts 78°
2026-05-07 11:03 22.32809 113.90484 39 ft 24 kts 101°
2026-05-07 11:03 22.32787 113.90614 38 ft 16 kts 100°
2026-05-07 11:03 22.32779 113.90667 38 ft 1 kts 99°
2026-05-07 11:04 22.32778 113.90672 38 ft 0 kts 98°
2026-05-07 11:04 22.32781 113.90720 38 ft 15 kts 78°
2026-05-07 11:04 22.32816 113.90836 38 ft 17 kts 70°
2026-05-07 11:05 22.32858 113.90966 38 ft 19 kts 71°
2026-05-07 11:05 22.32905 113.91113 38 ft 22 kts 71°
2026-05-07 11:05 22.32958 113.91275 38 ft 24 kts 71°
2026-05-07 11:05 22.33014 113.91452 38 ft 26 kts 71°
2026-05-07 11:06 22.33075 113.91644 38 ft 28 kts 70°
2026-05-07 11:06 22.33140 113.91844 38 ft 27 kts 70°
2026-05-07 11:06 22.33191 113.92004 38 ft 17 kts 71°
2026-05-07 11:06 22.33196 113.92112 38 ft 14 kts 129°
2026-05-07 11:07 22.33099 113.92158 38 ft 16 kts 161°
2026-05-07 11:07 22.32983 113.92201 38 ft 19 kts 161°
2026-05-07 11:07 22.32851 113.92250 38 ft 21 kts 161°
2026-05-07 11:07 22.32705 113.92304 38 ft 23 kts 161°
2026-05-07 11:08 22.32547 113.92363 38 ft 25 kts 161°
2026-05-07 11:08 22.32378 113.92426 38 ft 25 kts 161°
2026-05-07 11:08 22.32267 113.92467 38 ft 15 kts 165°
2026-05-07 11:08 22.32241 113.92505 38 ft 6 kts 93°
2026-05-07 11:09 22.32254 113.92559 38 ft 9 kts 71°
2026-05-07 11:09 22.32271 113.92633 38 ft 11 kts 95°
2026-05-07 11:09 22.32215 113.92680 38 ft 11 kts 160°
2026-05-07 11:09 22.32132 113.92710 38 ft 14 kts 161°
2026-05-07 11:10 22.32043 113.92743 40 ft 15 kts 161°
2026-05-07 11:10 22.31939 113.92782 39 ft 18 kts 157°
2026-05-07 11:10 22.31831 113.92829 38 ft 16 kts 158°
2026-05-07 11:10 22.31724 113.92872 38 ft 17 kts 161°
2026-05-07 11:11 22.31624 113.92909 38 ft 15 kts 160°
2026-05-07 11:11 22.31559 113.92939 38 ft 10 kts 139°
2026-05-07 11:11 22.31557 113.93010 38 ft 11 kts 73°
2026-05-07 11:11 22.31577 113.93084 38 ft 8 kts 86°
2026-05-07 11:12 22.31540 113.93121 38 ft 8 kts 157°
2026-05-07 11:12 22.31500 113.93136 38 ft 2 kts 160°
2026-05-07 11:12 22.31497 113.93137 38 ft 0 kts 160°